| time (UTC) | temp F | wind direction | speed knots | gust knots | rain 1hr in | rain 24hr in | rain mn in | humidity % | barometer mb |
| 20260509151220 | 72 | 269 | 0.9 | 2.6 | 0.00 | 0.00 | 0.00 | 70 | 1011.2 |
| 20260509151020 | 72 | 281 | 0.9 | 2.6 | 0.00 | 0.00 | 0.00 | 71 | 1011.1 |
| 20260509150820 | 72 | 237 | 0.9 | 3.5 | 0.00 | 0.00 | 0.00 | 71 | 1011.2 |
| 20260509150620 | 71 | 236 | 0.9 | 3.5 | 0.00 | 0.00 | 0.00 | 71 | 1011.2 |
| 20260509150420 | 71 | 234 | 0.9 | 3.5 | 0.00 | 0.00 | 0.00 | 71 | 1011.2 |
| 20260509150219 | 71 | 235 | 0.9 | 3.5 | 0.00 | 0.00 | 0.00 | 72 | 1011.1 |
| 20260509150020 | 71 | 240 | 0.9 | 3.5 | 0.00 | 0.00 | 0.00 | 71 | 1011.1 |
| 20260509145840 | 71 | 251 | 0.9 | 1.7 | 0.00 | 0.00 | 0.00 | 72 | 1011.1 |
| 20260509145641 | 70 | 253 | 0.9 | 1.7 | 0.00 | 0.00 | 0.00 | 72 | 1011.1 |
| 20260509145420 | 70 | 258 | 0.9 | 1.7 | 0.00 | 0.00 | 0.00 | 73 | 1011.1 |
| 20260509145220 | 70 | 249 | 0.9 | 2.6 | 0.00 | 0.00 | 0.00 | 73 | 1011.1 |
| 20260509145019 | 70 | 254 | 0.9 | 2.6 | 0.00 | 0.00 | 0.00 | 73 | 1011.2 |
| 20260509144841 | 70 | 244 | 0.9 | 2.6 | 0.00 | 0.00 | 0.00 | 74 | 1011.2 |
| 20260509144641 | 69 | 241 | 0.9 | 2.6 | 0.00 | 0.00 | 0.00 | 73 | 1011.2 |
| 20260509144420 | 69 | 252 | 0.9 | 2.6 | 0.00 | 0.00 | 0.00 | 73 | 1011.2 |
| 20260509144241 | 69 | 274 | 0.9 | 2.6 | 0.00 | 0.00 | 0.00 | 74 | 1011.2 |
| 20260509144020 | 69 | 248 | 0.9 | 2.6 | 0.00 | 0.00 | 0.00 | 75 | 1011.1 |
| 20260509143820 | 69 | 246 | 0.9 | 2.6 | 0.00 | 0.00 | 0.00 | 74 | 1011.1 |
| 20260509143619 | 69 | 243 | 0.9 | 2.6 | 0.00 | 0.00 | 0.00 | 73 | 1011.1 |
| 20260509143420 | 69 | 237 | 0.9 | 2.6 | 0.00 | 0.00 | 0.00 | 74 | 1011.1 |
| 20260509143221 | 69 | 228 | 0.9 | 2.6 | 0.00 | 0.00 | 0.00 | 74 | 1010.9 |
| 20260509143041 | 69 | 229 | 0.9 | 2.6 | 0.00 | 0.00 | 0.00 | 76 | 1010.9 |
| 20260509142820 | 68 | 241 | 0.9 | 5.2 | 0.00 | 0.00 | 0.00 | 77 | 1011.0 |
| 20260509142641 | 68 | 257 | 0.9 | 5.2 | 0.00 | 0.00 | 0.00 | 76 | 1011.0 |
| 20260509142441 | 68 | 256 | 0.9 | 5.2 | 0.00 | 0.00 | 0.00 | 75 | 1011.0 |
| 20260509142220 | 68 | 249 | 0.9 | 5.2 | 0.00 | 0.00 | 0.00 | 75 | 1011.0 |
| 20260509142020 | 68 | 256 | 0.9 | 5.2 | 0.00 | 0.00 | 0.00 | 75 | 1011.0 |
| 20260509141820 | 68 | 258 | 0.9 | 5.2 | 0.00 | 0.00 | 0.00 | 74 | 1010.9 |
| 20260509141641 | 69 | 246 | 0.9 | 2.6 | 0.00 | 0.00 | 0.00 | 75 | 1010.9 |
| 20260509141420 | 68 | 253 | 0.9 | 2.6 | 0.00 | 0.00 | 0.00 | 76 | 1010.8 |
| 20260509141241 | 68 | 259 | 0.9 | 2.6 | 0.00 | 0.00 | 0.00 | 75 | 1010.8 |
| 20260509141020 | 68 | 253 | 0.9 | 2.6 | 0.00 | 0.00 | 0.00 | 75 | 1010.8 |
| 20260509140841 | 68 | 248 | 0.9 | 2.6 | 0.00 | 0.00 | 0.00 | 75 | 1010.8 |
| 20260509140620 | 68 | 253 | 0.9 | 2.6 | 0.00 | 0.00 | 0.00 | 76 | 1010.8 |
| 20260509140420 | 68 | 253 | 0.9 | 2.6 | 0.00 | 0.00 | 0.00 | 76 | 1010.8 |
| 20260509140222 | 68 | 260 | 0.9 | 1.7 | 0.00 | 0.00 | 0.00 | 76 | 1010.8 |
| 20260509140020 | 68 | 261 | 0.9 | 1.7 | 0.00 | 0.00 | 0.00 | 76 | 1010.8 |
| 20260509135821 | 68 | 263 | 0.9 | 1.7 | 0.00 | 0.00 | 0.00 | 76 | 1010.8 |
| 20260509135620 | 68 | 266 | 0.9 | 1.7 | 0.00 | 0.00 | 0.00 | 77 | 1010.8 |
| 20260509135441 | 68 | 260 | 0.9 | 1.7 | 0.00 | 0.00 | 0.00 | 77 | 1010.7 |
| 20260509135220 | 68 | 242 | 0.9 | 2.6 | 0.00 | 0.00 | 0.00 | 76 | 1010.8 |
| 20260509135020 | 68 | 240 | 0.9 | 2.6 | 0.00 | 0.00 | 0.00 | 76 | 1010.8 |
| 20260509134820 | 68 | 236 | 0.9 | 2.6 | 0.00 | 0.00 | 0.00 | 76 | 1010.8 |
| 20260509134620 | 68 | 222 | 0.9 | 2.6 | 0.00 | 0.00 | 0.00 | 78 | 1010.8 |
| 20260509134420 | 67 | 219 | 0.9 | 2.6 | 0.00 | 0.00 | 0.00 | 78 | 1010.7 |
| 20260509134241 | 67 | 228 | 0.9 | 2.6 | 0.00 | 0.00 | 0.00 | 79 | 1010.8 |
| 20260509134041 | 67 | 226 | 0.9 | 3.5 | 0.00 | 0.00 | 0.00 | 79 | 1010.8 |
| 20260509133841 | 66 | 227 | 0.9 | 3.5 | 0.00 | 0.00 | 0.00 | 80 | 1010.8 |
| 20260509133641 | 66 | 228 | 0.9 | 4.3 | 0.00 | 0.00 | 0.00 | 79 | 1010.8 |
| 20260509133441 | 66 | 229 | 0.9 | 4.3 | 0.00 | 0.00 | 0.00 | 79 | 1010.9 |
| 20260509133241 | 66 | 226 | 0.9 | 4.3 | 0.00 | 0.00 | 0.00 | 79 | 1010.9 |
| 20260509133020 | 66 | 225 | 0.9 | 4.3 | 0.00 | 0.00 | 0.00 | 79 | 1010.9 |
| 20260509132820 | 66 | 226 | 0.9 | 4.3 | 0.00 | 0.00 | 0.00 | 79 | 1010.8 |
| 20260509132620 | 66 | 221 | 0.9 | 1.7 | 0.00 | 0.00 | 0.00 | 80 | 1010.9 |
| 20260509132420 | 66 | 218 | 0.9 | 1.7 | 0.00 | 0.00 | 0.00 | 80 | 1010.9 |
| 20260509132220 | 65 | 219 | 0.9 | 2.6 | 0.00 | 0.00 | 0.00 | 80 | 1010.9 |
| 20260509132020 | 65 | 220 | 0.9 | 2.6 | 0.00 | 0.00 | 0.00 | 81 | 1011.0 |
| 20260509131841 | 65 | 220 | 0.9 | 2.6 | 0.00 | 0.00 | 0.00 | 82 | 1011.0 |
| 20260509131620 | 64 | 222 | 0.9 | 2.6 | 0.00 | 0.00 | 0.00 | 82 | 1011.0 |
| 20260509131441 | 64 | 223 | 0.9 | 2.6 | 0.00 | 0.00 | 0.00 | 82 | 1011.0 |
| 20260509131220 | 64 | 227 | 0.9 | 2.6 | 0.00 | 0.00 | 0.00 | 83 | 1011.1 |
| 20260509131020 | 63 | 230 | 0.9 | 2.6 | 0.00 | 0.00 | 0.00 | 83 | 1011.0 |
| 20260509130841 | 63 | 229 | 0.9 | 2.6 | 0.00 | 0.00 | 0.00 | 83 | 1011.0 |
| 20260509130620 | 63 | 232 | 0.9 | 4.3 | 0.00 | 0.00 | 0.00 | 84 | 1011.1 |
| 20260509130420 | 62 | 234 | 0.9 | 4.3 | 0.00 | 0.00 | 0.00 | 84 | 1011.1 |
| 20260509130220 | 62 | 232 | 0.9 | 4.3 | 0.00 | 0.00 | 0.00 | 84 | 1011.0 |
| 20260509130020 | 62 | 229 | 0.9 | 4.3 | 0.00 | 0.00 | 0.00 | 84 | 1011.0 |
| 20260509125820 | 62 | 229 | 0.9 | 4.3 | 0.00 | 0.01 | 0.00 | 84 | 1011.0 |
| 20260509125620 | 62 | 230 | 0.9 | 2.6 | 0.00 | 0.01 | 0.00 | 84 | 1011.0 |
| 20260509125441 | 61 | 227 | 0.9 | 3.5 | 0.00 | 0.01 | 0.00 | 85 | 1011.0 |
| 20260509125220 | 61 | 223 | 0.0 | 3.5 | 0.00 | 0.01 | 0.00 | 86 | 1010.8 |
| 20260509125020 | 61 | 224 | 0.0 | 3.5 | 0.00 | 0.01 | 0.00 | 86 | 1010.8 |
| 20260509124840 | 61 | 223 | 0.0 | 3.5 | 0.00 | 0.01 | 0.00 | 86 | 1010.7 |
| 20260509124641 | 61 | 217 | 0.0 | 3.5 | 0.00 | 0.01 | 0.00 | 86 | 1010.7 |
| 20260509124419 | 61 | 213 | 0.0 | 1.7 | 0.00 | 0.01 | 0.00 | 86 | 1010.8 |
| 20260509124220 | 60 | 0 | 0.0 | 0.0 | 0.00 | 0.01 | 0.00 | 86 | 1010.8 |
| 20260509124019 | 60 | 0 | 0.0 | 0.0 | 0.00 | 0.01 | 0.00 | 86 | 1010.9 |
| 20260509123820 | 60 | 0 | 0.0 | 0.0 | 0.00 | 0.01 | 0.00 | 87 | 1010.9 |
| 20260509123620 | 60 | 0 | 0.0 | 0.0 | 0.00 | 0.01 | 0.00 | 86 | 1010.9 |
| 20260509123420 | 60 | 0 | 0.0 | 0.0 | 0.00 | 0.01 | 0.00 | 86 | 1010.8 |
| 20260509123220 | 60 | 0 | 0.0 | 0.0 | 0.00 | 0.01 | 0.00 | 87 | 1010.8 |
| 20260509123019 | 60 | 0 | 0.0 | 0.0 | 0.00 | 0.01 | 0.00 | 87 | 1010.7 |
| 20260509122841 | 60 | 0 | 0.0 | 0.0 | 0.00 | 0.01 | 0.00 | 87 | 1010.7 |
| 20260509122620 | 60 | 0 | 0.0 | 0.0 | 0.00 | 0.01 | 0.00 | 87 | 1010.7 |
| 20260509122420 | 60 | 0 | 0.0 | 0.0 | 0.00 | 0.01 | 0.00 | 87 | 1010.7 |
| 20260509122221 | 60 | 0 | 0.0 | 0.0 | 0.00 | 0.01 | 0.00 | 87 | 1010.6 |
| 20260509122020 | 59 | 0 | 0.0 | 0.0 | 0.00 | 0.01 | 0.00 | 87 | 1010.6 |
| 20260509121841 | 59 | 0 | 0.0 | 0.0 | 0.00 | 0.01 | 0.00 | 88 | 1010.6 |
| 20260509121619 | 59 | 0 | 0.0 | 0.0 | 0.00 | 0.01 | 0.00 | 88 | 1010.6 |
| 20260509121420 | 59 | 0 | 0.0 | 0.0 | 0.00 | 0.01 | 0.00 | 88 | 1010.5 |
| 20260509121220 | 59 | 0 | 0.0 | 0.0 | 0.00 | 0.01 | 0.00 | 88 | 1010.4 |
| 20260509121041 | 59 | 0 | 0.0 | 0.0 | 0.00 | 0.01 | 0.00 | 88 | 1010.4 |
| 20260509120820 | 59 | 0 | 0.0 | 0.0 | 0.00 | 0.01 | 0.00 | 88 | 1010.3 |
| 20260509120641 | 59 | 0 | 0.0 | 0.0 | 0.00 | 0.01 | 0.00 | 88 | 1010.3 |
| 20260509120420 | 59 | 0 | 0.0 | 0.0 | 0.00 | 0.01 | 0.00 | 88 | 1010.3 |
| 20260509120220 | 59 | 0 | 0.0 | 0.0 | 0.00 | 0.01 | 0.00 | 88 | 1010.3 |
| 20260509120020 | 59 | 0 | 0.0 | 0.0 | 0.00 | 0.01 | 0.00 | 88 | 1010.3 |
| 20260509115819 | 59 | 0 | 0.0 | 0.0 | 0.00 | 0.01 | 0.00 | 87 | 1010.2 |
| 20260509115621 | 58 | 0 | 0.0 | 0.0 | 0.00 | 0.01 | 0.00 | 87 | 1010.1 |
| 20260509115420 | 58 | 0 | 0.0 | 0.0 | 0.00 | 0.01 | 0.00 | 87 | 1010.0 |
| 20260509115220 | 58 | 0 | 0.0 | 0.0 | 0.00 | 0.01 | 0.00 | 87 | 1009.9 |
| 20260509115020 | 58 | 0 | 0.0 | 0.0 | 0.00 | 0.01 | 0.00 | 87 | 1009.9 |
| 20260509114820 | 58 | 0 | 0.0 | 0.0 | 0.00 | 0.01 | 0.00 | 87 | 1009.9 |
| 20260509114620 | 58 | 0 | 0.0 | 0.0 | 0.00 | 0.01 | 0.00 | 87 | 1009.7 |
| 20260509114420 | 58 | 0 | 0.0 | 0.0 | 0.00 | 0.01 | 0.00 | 87 | 1009.7 |
| 20260509114220 | 58 | 0 | 0.0 | 0.0 | 0.00 | 0.01 | 0.00 | 87 | 1009.6 |
| 20260509114020 | 58 | 0 | 0.0 | 0.0 | 0.00 | 0.01 | 0.00 | 87 | 1009.6 |
| 20260509113841 | 58 | 0 | 0.0 | 0.0 | 0.00 | 0.01 | 0.00 | 87 | 1009.6 |
| 20260509113620 | 58 | 0 | 0.0 | 0.0 | 0.00 | 0.01 | 0.00 | 87 | 1009.6 |
| 20260509113421 | 58 | 0 | 0.0 | 0.0 | 0.00 | 0.01 | 0.00 | 87 | 1009.6 |
| 20260509113220 | 58 | 0 | 0.0 | 0.0 | 0.00 | 0.01 | 0.00 | 87 | 1009.6 |
| 20260509113020 | 58 | 0 | 0.0 | 0.0 | 0.00 | 0.01 | 0.00 | 87 | 1009.6 |
| 20260509112820 | 58 | 0 | 0.0 | 0.0 | 0.00 | 0.01 | 0.00 | 87 | 1009.5 |
| 20260509112620 | 58 | 0 | 0.0 | 0.0 | 0.00 | 0.01 | 0.00 | 87 | 1009.5 |
| 20260509112420 | 58 | 0 | 0.0 | 0.0 | 0.00 | 0.01 | 0.00 | 87 | 1009.6 |
| 20260509112220 | 58 | 0 | 0.0 | 0.0 | 0.00 | 0.01 | 0.00 | 87 | 1009.6 |
| 20260509112020 | 58 | 0 | 0.0 | 0.0 | 0.00 | 0.01 | 0.00 | 87 | 1009.6 |
| 20260509111841 | 58 | 0 | 0.0 | 0.0 | 0.00 | 0.01 | 0.00 | 87 | 1009.6 |
| 20260509111620 | 58 | 0 | 0.0 | 0.0 | 0.00 | 0.01 | 0.00 | 87 | 1009.7 |
| 20260509111420 | 58 | 0 | 0.0 | 0.0 | 0.00 | 0.01 | 0.00 | 87 | 1009.6 |
| 20260509111220 | 58 | 0 | 0.0 | 0.0 | 0.00 | 0.01 | 0.00 | 87 | 1009.6 |
| 20260509111041 | 58 | 0 | 0.0 | 0.0 | 0.00 | 0.01 | 0.00 | 87 | 1009.6 |
| 20260509110841 | 58 | 0 | 0.0 | 0.0 | 0.00 | 0.01 | 0.00 | 87 | 1009.6 |
| 20260509110620 | 58 | 0 | 0.0 | 0.0 | 0.00 | 0.01 | 0.00 | 87 | 1009.7 |
| 20260509110420 | 58 | 0 | 0.0 | 0.0 | 0.00 | 0.01 | 0.00 | 87 | 1009.6 |
| 20260509110241 | 58 | 0 | 0.0 | 0.0 | 0.00 | 0.01 | 0.00 | 87 | 1009.7 |
| 20260509110020 | 58 | 0 | 0.0 | 0.0 | 0.00 | 0.01 | 0.00 | 87 | 1009.7 |
| 20260509105841 | 58 | 0 | 0.0 | 0.0 | 0.00 | 0.01 | 0.00 | 87 | 1009.6 |
| 20260509105620 | 58 | 0 | 0.0 | 0.0 | 0.00 | 0.01 | 0.00 | 87 | 1009.5 |
| 20260509105441 | 58 | 0 | 0.0 | 0.0 | 0.00 | 0.01 | 0.00 | 87 | 1009.4 |
| 20260509105220 | 58 | 0 | 0.0 | 0.0 | 0.00 | 0.01 | 0.00 | 87 | 1009.4 |
| 20260509105020 | 58 | 0 | 0.0 | 0.0 | 0.00 | 0.01 | 0.00 | 87 | 1009.4 |
| 20260509104820 | 58 | 0 | 0.0 | 0.0 | 0.00 | 0.01 | 0.00 | 87 | 1009.3 |
| 20260509104620 | 58 | 0 | 0.0 | 0.0 | 0.00 | 0.01 | 0.00 | 87 | 1009.4 |
| 20260509104420 | 58 | 0 | 0.0 | 0.0 | 0.00 | 0.01 | 0.00 | 86 | 1009.4 |
| 20260509104220 | 58 | 0 | 0.0 | 0.0 | 0.00 | 0.01 | 0.00 | 86 | 1009.3 |
| 20260509104020 | 58 | 0 | 0.0 | 0.0 | 0.00 | 0.01 | 0.00 | 86 | 1009.3 |
| 20260509103820 | 58 | 0 | 0.0 | 0.0 | 0.00 | 0.01 | 0.00 | 86 | 1009.3 |
| 20260509103620 | 58 | 0 | 0.0 | 0.0 | 0.00 | 0.01 | 0.00 | 86 | 1009.3 |
| 20260509103420 | 58 | 0 | 0.0 | 0.0 | 0.00 | 0.01 | 0.00 | 86 | 1009.3 |
| 20260509103220 | 58 | 0 | 0.0 | 0.0 | 0.00 | 0.01 | 0.00 | 86 | 1009.3 |
| 20260509103020 | 58 | 0 | 0.0 | 0.0 | 0.00 | 0.01 | 0.00 | 86 | 1009.3 |
| 20260509102820 | 58 | 0 | 0.0 | 0.0 | 0.00 | 0.01 | 0.00 | 86 | 1009.3 |
| 20260509102620 | 58 | 0 | 0.0 | 0.0 | 0.00 | 0.01 | 0.00 | 86 | 1009.3 |
| 20260509102421 | 58 | 0 | 0.0 | 0.0 | 0.00 | 0.01 | 0.00 | 86 | 1009.4 |
| 20260509102220 | 58 | 0 | 0.0 | 0.0 | 0.00 | 0.01 | 0.00 | 86 | 1009.4 |
| 20260509102019 | 58 | 0 | 0.0 | 0.0 | 0.00 | 0.01 | 0.00 | 86 | 1009.4 |
| 20260509101820 | 58 | 0 | 0.0 | 0.0 | 0.00 | 0.01 | 0.00 | 86 | 1009.6 |
| 20260509101641 | 58 | 0 | 0.0 | 0.0 | 0.00 | 0.01 | 0.00 | 86 | 1009.6 |
| 20260509101420 | 58 | 0 | 0.0 | 0.0 | 0.00 | 0.01 | 0.00 | 86 | 1009.7 |
| 20260509101220 | 58 | 0 | 0.0 | 0.0 | 0.00 | 0.01 | 0.00 | 86 | 1009.7 |
| 20260509101020 | 58 | 0 | 0.0 | 0.0 | 0.00 | 0.01 | 0.00 | 86 | 1009.7 |
| 20260509100820 | 58 | 0 | 0.0 | 0.0 | 0.00 | 0.01 | 0.00 | 86 | 1009.7 |
| 20260509100641 | 58 | 0 | 0.0 | 0.0 | 0.00 | 0.01 | 0.00 | 86 | 1009.8 |
| 20260509100420 | 58 | 0 | 0.0 | 0.0 | 0.00 | 0.01 | 0.00 | 85 | 1009.6 |
| 20260509100220 | 58 | 0 | 0.0 | 0.0 | 0.00 | 0.01 | 0.00 | 85 | 1009.4 |
| 20260509100043 | 58 | 0 | 0.0 | 0.0 | 0.00 | 0.01 | 0.00 | 85 | 1009.4 |
| 20260509095820 | 58 | 0 | 0.0 | 0.0 | 0.00 | 0.01 | 0.00 | 85 | 1009.4 |
| 20260509095641 | 58 | 0 | 0.0 | 0.0 | 0.00 | 0.01 | 0.00 | 85 | 1009.4 |
| 20260509095420 | 58 | 0 | 0.0 | 0.0 | 0.00 | 0.01 | 0.00 | 85 | 1009.6 |
| 20260509095220 | 58 | 0 | 0.0 | 0.0 | 0.00 | 0.01 | 0.00 | 85 | 1009.6 |
| 20260509095020 | 58 | 0 | 0.0 | 0.0 | 0.00 | 0.01 | 0.00 | 85 | 1009.6 |
| 20260509094820 | 58 | 0 | 0.0 | 0.0 | 0.00 | 0.01 | 0.00 | 86 | 1009.7 |
| 20260509094620 | 58 | 0 | 0.0 | 0.0 | 0.00 | 0.01 | 0.00 | 85 | 1009.7 |
| 20260509094441 | 58 | 0 | 0.0 | 0.0 | 0.00 | 0.01 | 0.00 | 85 | 1009.6 |
| 20260509094241 | 58 | 0 | 0.0 | 0.0 | 0.00 | 0.01 | 0.00 | 85 | 1009.6 |
| 20260509094020 | 58 | 0 | 0.0 | 0.0 | 0.00 | 0.01 | 0.00 | 85 | 1009.7 |
| 20260509093820 | 58 | 0 | 0.0 | 0.0 | 0.00 | 0.01 | 0.00 | 85 | 1009.7 |
| 20260509093620 | 58 | 0 | 0.0 | 0.0 | 0.00 | 0.01 | 0.00 | 85 | 1009.7 |
| 20260509093420 | 58 | 0 | 0.0 | 0.0 | 0.00 | 0.01 | 0.00 | 85 | 1009.8 |
| 20260509093220 | 58 | 0 | 0.0 | 0.0 | 0.00 | 0.01 | 0.00 | 85 | 1009.8 |
| 20260509093041 | 58 | 0 | 0.0 | 0.0 | 0.00 | 0.01 | 0.00 | 85 | 1010.0 |
| 20260509092820 | 58 | 0 | 0.0 | 0.0 | 0.00 | 0.01 | 0.00 | 85 | 1010.0 |
| 20260509092620 | 58 | 0 | 0.0 | 0.0 | 0.00 | 0.01 | 0.00 | 85 | 1010.0 |
| 20260509092419 | 58 | 0 | 0.0 | 0.0 | 0.00 | 0.01 | 0.00 | 85 | 1009.8 |
| 20260509092241 | 58 | 0 | 0.0 | 0.0 | 0.00 | 0.01 | 0.00 | 85 | 1009.8 |
| 20260509092041 | 58 | 0 | 0.0 | 0.0 | 0.00 | 0.01 | 0.00 | 85 | 1009.8 |
| 20260509091820 | 58 | 0 | 0.0 | 0.0 | 0.00 | 0.01 | 0.00 | 85 | 1009.8 |
| 20260509091641 | 58 | 0 | 0.0 | 0.0 | 0.00 | 0.01 | 0.00 | 85 | 1009.9 |
| 20260509091420 | 58 | 0 | 0.0 | 0.0 | 0.00 | 0.01 | 0.00 | 85 | 1009.9 |
| 20260509091220 | 58 | 0 | 0.0 | 0.0 | 0.00 | 0.01 | 0.00 | 85 | 1009.8 |
| 20260509091020 | 58 | 0 | 0.0 | 0.0 | 0.00 | 0.01 | 0.00 | 85 | 1009.9 |
| 20260509090841 | 58 | 0 | 0.0 | 0.0 | 0.00 | 0.01 | 0.00 | 84 | 1009.9 |
| 20260509090620 | 58 | 0 | 0.0 | 0.0 | 0.00 | 0.01 | 0.00 | 84 | 1010.0 |
| 20260509090420 | 58 | 0 | 0.0 | 0.0 | 0.00 | 0.01 | 0.00 | 84 | 1010.0 |
| 20260509090220 | 58 | 0 | 0.0 | 0.0 | 0.00 | 0.01 | 0.00 | 85 | 1010.0 |
| 20260509090020 | 58 | 0 | 0.0 | 0.0 | 0.00 | 0.01 | 0.00 | 85 | 1010.2 |
| 20260509085820 | 58 | 0 | 0.0 | 0.0 | 0.00 | 0.01 | 0.00 | 85 | 1010.3 |
| 20260509085641 | 58 | 0 | 0.0 | 0.0 | 0.00 | 0.01 | 0.00 | 84 | 1010.3 |
| 20260509085441 | 58 | 0 | 0.0 | 0.0 | 0.00 | 0.01 | 0.00 | 84 | 1010.3 |
| 20260509085241 | 58 | 0 | 0.0 | 0.0 | 0.00 | 0.01 | 0.00 | 84 | 1010.2 |
| 20260509085020 | 58 | 0 | 0.0 | 0.0 | 0.00 | 0.01 | 0.00 | 84 | 1010.3 |
| 20260509084820 | 58 | 0 | 0.0 | 0.0 | 0.00 | 0.01 | 0.00 | 84 | 1010.3 |
| 20260509084620 | 58 | 0 | 0.0 | 0.0 | 0.00 | 0.01 | 0.00 | 84 | 1010.4 |
| 20260509084420 | 58 | 0 | 0.0 | 0.0 | 0.00 | 0.01 | 0.00 | 84 | 1010.3 |
| 20260509084220 | 58 | 0 | 0.0 | 0.0 | 0.00 | 0.01 | 0.00 | 83 | 1010.3 |
| 20260509084019 | 58 | 0 | 0.0 | 0.0 | 0.00 | 0.01 | 0.00 | 83 | 1010.4 |
| 20260509083820 | 58 | 0 | 0.0 | 0.0 | 0.00 | 0.01 | 0.00 | 83 | 1010.3 |
| 20260509083620 | 58 | 0 | 0.0 | 0.0 | 0.00 | 0.01 | 0.00 | 83 | 1010.4 |
| 20260509083420 | 58 | 257 | 0.0 | 0.9 | 0.00 | 0.01 | 0.00 | 83 | 1010.6 |
| 20260509083220 | 59 | 257 | 0.0 | 0.9 | 0.00 | 0.01 | 0.00 | 83 | 1010.6 |
| 20260509083020 | 59 | 257 | 0.0 | 0.9 | 0.00 | 0.01 | 0.00 | 83 | 1010.6 |
| 20260509082820 | 59 | 257 | 0.0 | 0.9 | 0.00 | 0.01 | 0.00 | 83 | 1010.6 |
| 20260509082641 | 59 | 257 | 0.0 | 0.9 | 0.00 | 0.01 | 0.00 | 83 | 1010.6 |
| 20260509082421 | 59 | 254 | 0.0 | 0.9 | 0.00 | 0.01 | 0.00 | 83 | 1010.6 |
| 20260509082241 | 59 | 254 | 0.0 | 0.9 | 0.00 | 0.01 | 0.00 | 83 | 1010.7 |
| 20260509082020 | 59 | 254 | 0.0 | 0.9 | 0.00 | 0.01 | 0.00 | 83 | 1010.7 |
| 20260509081820 | 59 | 254 | 0.0 | 0.9 | 0.00 | 0.01 | 0.00 | 83 | 1010.7 |
| 20260509081620 | 59 | 251 | 0.0 | 0.9 | 0.00 | 0.01 | 0.00 | 83 | 1010.8 |
| 20260509081420 | 59 | 0 | 0.0 | 0.0 | 0.00 | 0.01 | 0.00 | 83 | 1010.6 |
| 20260509081220 | 59 | 0 | 0.0 | 0.0 | 0.00 | 0.01 | 0.00 | 83 | 1010.6 |
| 20260509081020 | 59 | 0 | 0.0 | 0.0 | 0.00 | 0.01 | 0.00 | 82 | 1010.5 |
| 20260509080820 | 59 | 0 | 0.0 | 0.0 | 0.00 | 0.01 | 0.00 | 82 | 1010.4 |
| 20260509080620 | 59 | 0 | 0.0 | 0.0 | 0.00 | 0.01 | 0.00 | 82 | 1010.3 |
| 20260509080420 | 59 | 0 | 0.0 | 0.0 | 0.00 | 0.01 | 0.00 | 82 | 1010.3 |
| 20260509080220 | 59 | 0 | 0.0 | 0.0 | 0.00 | 0.01 | 0.00 | 82 | 1010.3 |
| 20260509080020 | 59 | 0 | 0.0 | 0.0 | 0.00 | 0.01 | 0.00 | 82 | 1010.2 |
| 20260509075820 | 59 | 0 | 0.0 | 0.0 | 0.00 | 0.01 | 0.00 | 81 | 1010.3 |
| 20260509075620 | 59 | 0 | 0.0 | 0.0 | 0.00 | 0.01 | 0.00 | 81 | 1010.3 |
| 20260509075421 | 59 | 0 | 0.0 | 0.0 | 0.00 | 0.01 | 0.00 | 81 | 1010.4 |
| 20260509075241 | 59 | 214 | 0.0 | 0.9 | 0.00 | 0.01 | 0.00 | 81 | 1010.4 |
| 20260509075041 | 59 | 214 | 0.0 | 0.9 | 0.00 | 0.01 | 0.00 | 81 | 1010.4 |
| 20260509074820 | 59 | 214 | 0.0 | 0.9 | 0.00 | 0.01 | 0.00 | 81 | 1010.5 |
| 20260509074641 | 59 | 215 | 0.0 | 0.9 | 0.00 | 0.01 | 0.00 | 81 | 1010.5 |
| 20260509074420 | 59 | 215 | 0.0 | 0.9 | 0.00 | 0.01 | 0.00 | 81 | 1010.5 |
| 20260509074241 | 59 | 215 | 0.0 | 0.9 | 0.00 | 0.01 | 0.00 | 81 | 1010.5 |
| 20260509074020 | 59 | 216 | 0.0 | 1.7 | 0.00 | 0.01 | 0.00 | 81 | 1010.5 |
| 20260509073820 | 59 | 219 | 0.0 | 1.7 | 0.00 | 0.01 | 0.00 | 81 | 1010.5 |
| 20260509073620 | 59 | 220 | 0.0 | 1.7 | 0.00 | 0.01 | 0.00 | 81 | 1010.5 |
| 20260509073420 | 59 | 220 | 0.0 | 1.7 | 0.00 | 0.01 | 0.00 | 80 | 1010.6 |
| 20260509073221 | 59 | 220 | 0.0 | 1.7 | 0.00 | 0.01 | 0.00 | 80 | 1010.6 |
| 20260509073020 | 59 | 225 | 0.0 | 0.9 | 0.00 | 0.01 | 0.00 | 80 | 1010.6 |
| 20260509072820 | 59 | 0 | 0.0 | 0.0 | 0.00 | 0.01 | 0.00 | 80 | 1010.5 |
| 20260509072620 | 59 | 0 | 0.0 | 0.0 | 0.00 | 0.01 | 0.00 | 80 | 1010.5 |
| 20260509072420 | 59 | 219 | 0.0 | 0.9 | 0.00 | 0.01 | 0.00 | 80 | 1010.5 |
| 20260509072220 | 59 | 219 | 0.0 | 0.9 | 0.00 | 0.01 | 0.00 | 80 | 1010.4 |
| 20260509072020 | 59 | 219 | 0.0 | 0.9 | 0.00 | 0.01 | 0.00 | 80 | 1010.4 |
| 20260509071820 | 59 | 219 | 0.0 | 0.9 | 0.00 | 0.01 | 0.00 | 79 | 1010.4 |
| 20260509071620 | 59 | 219 | 0.0 | 0.9 | 0.00 | 0.01 | 0.00 | 79 | 1010.2 |
| 20260509071421 | 59 | 0 | 0.0 | 0.0 | 0.00 | 0.01 | 0.00 | 79 | 1010.2 |
| 20260509071220 | 59 | 0 | 0.0 | 0.0 | 0.00 | 0.01 | 0.00 | 79 | 1010.2 |
| 20260509071020 | 59 | 0 | 0.0 | 0.0 | 0.00 | 0.01 | 0.00 | 79 | 1010.2 |
| 20260509070820 | 59 | 0 | 0.0 | 0.0 | 0.00 | 0.01 | 0.00 | 79 | 1010.2 |
| 20260509070621 | 59 | 0 | 0.0 | 0.0 | 0.00 | 0.01 | 0.00 | 79 | 1010.3 |
| 20260509070441 | 59 | 0 | 0.0 | 0.0 | 0.00 | 0.01 | 0.00 | 78 | 1010.3 |
| 20260509070220 | 59 | 0 | 0.0 | 0.0 | 0.00 | 0.01 | 0.00 | 78 | 1010.3 |
| 20260509070020 | 59 | 0 | 0.0 | 0.0 | 0.00 | 0.01 | 0.00 | 78 | 1010.3 |
| 20260509065820 | 60 | 0 | 0.0 | 0.0 | 0.00 | 0.01 | 0.00 | 78 | 1010.3 |
| 20260509065620 | 60 | 0 | 0.0 | 0.0 | 0.00 | 0.01 | 0.00 | 78 | 1010.4 |
| 20260509065441 | 60 | 0 | 0.0 | 0.0 | 0.00 | 0.01 | 0.00 | 77 | 1010.3 |
| 20260509065241 | 60 | 0 | 0.0 | 0.0 | 0.00 | 0.01 | 0.00 | 77 | 1010.3 |
| 20260509065020 | 60 | 0 | 0.0 | 0.0 | 0.00 | 0.01 | 0.00 | 77 | 1010.4 |
| 20260509064820 | 60 | 0 | 0.0 | 0.0 | 0.00 | 0.01 | 0.00 | 77 | 1010.5 |
| 20260509064620 | 60 | 206 | 0.0 | 0.9 | 0.00 | 0.01 | 0.00 | 77 | 1010.5 |
| 20260509064420 | 60 | 206 | 0.0 | 0.9 | 0.00 | 0.01 | 0.00 | 77 | 1010.5 |
| 20260509064221 | 60 | 206 | 0.0 | 0.9 | 0.00 | 0.01 | 0.00 | 77 | 1010.5 |
| 20260509064020 | 60 | 206 | 0.0 | 0.9 | 0.00 | 0.01 | 0.00 | 77 | 1010.6 |
| 20260509063820 | 60 | 206 | 0.0 | 0.9 | 0.00 | 0.01 | 0.00 | 77 | 1010.6 |
| 20260509063620 | 60 | 207 | 0.0 | 0.9 | 0.00 | 0.01 | 0.00 | 76 | 1010.6 |
| 20260509063441 | 60 | 0 | 0.0 | 0.0 | 0.00 | 0.01 | 0.00 | 76 | 1010.7 |
| 20260509063241 | 60 | 0 | 0.0 | 0.0 | 0.00 | 0.01 | 0.00 | 76 | 1010.8 |
| 20260509063020 | 60 | 0 | 0.0 | 0.0 | 0.00 | 0.01 | 0.00 | 76 | 1010.9 |
| 20260509062841 | 60 | 0 | 0.0 | 0.0 | 0.00 | 0.01 | 0.00 | 76 | 1010.9 |
| 20260509062620 | 60 | 0 | 0.0 | 0.0 | 0.00 | 0.01 | 0.00 | 76 | 1010.9 |
| 20260509062441 | 60 | 0 | 0.0 | 0.0 | 0.00 | 0.01 | 0.00 | 76 | 1010.9 |
| 20260509062220 | 60 | 0 | 0.0 | 0.0 | 0.00 | 0.01 | 0.00 | 76 | 1011.0 |
| 20260509062020 | 60 | 0 | 0.0 | 0.0 | 0.00 | 0.01 | 0.00 | 76 | 1011.1 |
| 20260509061820 | 60 | 221 | 0.0 | 0.9 | 0.00 | 0.01 | 0.00 | 76 | 1011.1 |
| 20260509061620 | 60 | 220 | 0.0 | 0.9 | 0.00 | 0.01 | 0.00 | 75 | 1011.0 |
| 20260509061420 | 60 | 220 | 0.0 | 0.9 | 0.00 | 0.01 | 0.00 | 75 | 1011.1 |
| 20260509061241 | 60 | 220 | 0.0 | 0.9 | 0.00 | 0.01 | 0.00 | 75 | 1011.1 |
| 20260509061041 | 60 | 220 | 0.0 | 0.9 | 0.00 | 0.01 | 0.00 | 75 | 1011.1 |
| 20260509060821 | 60 | 216 | 0.0 | 0.9 | 0.00 | 0.01 | 0.00 | 75 | 1011.1 |
| 20260509060620 | 60 | 214 | 0.0 | 0.9 | 0.00 | 0.01 | 0.00 | 75 | 1011.0 |
| 20260509060420 | 60 | 213 | 0.0 | 0.9 | 0.00 | 0.01 | 0.00 | 75 | 1011.1 |
| 20260509060220 | 60 | 212 | 0.0 | 0.9 | 0.00 | 0.01 | 0.00 | 75 | 1011.1 |
| 20260509060020 | 60 | 212 | 0.0 | 0.9 | 0.00 | 0.01 | 0.00 | 75 | 1011.1 |
| 20260509055820 | 60 | 211 | 0.0 | 0.9 | 0.00 | 0.01 | 0.00 | 75 | 1011.1 |
| 20260509055621 | 60 | 211 | 0.0 | 0.9 | 0.00 | 0.01 | 0.00 | 75 | 1011.1 |
| 20260509055420 | 60 | 211 | 0.0 | 0.9 | 0.00 | 0.01 | 0.00 | 75 | 1011.1 |
| 20260509055220 | 60 | 211 | 0.0 | 0.9 | 0.00 | 0.01 | 0.00 | 75 | 1011.0 |
| 20260509055020 | 60 | 0 | 0.0 | 0.0 | 0.00 | 0.01 | 0.00 | 75 | 1011.0 |
| 20260509054820 | 60 | 0 | 0.0 | 0.0 | 0.00 | 0.01 | 0.00 | 75 | 1011.1 |
| 20260509054620 | 60 | 0 | 0.0 | 0.0 | 0.00 | 0.01 | 0.00 | 75 | 1011.1 |
| 20260509054420 | 60 | 0 | 0.0 | 0.0 | 0.00 | 0.01 | 0.00 | 75 | 1011.2 |
| 20260509054220 | 60 | 0 | 0.0 | 0.0 | 0.00 | 0.01 | 0.00 | 75 | 1011.2 |
| 20260509054020 | 60 | 211 | 0.0 | 0.9 | 0.00 | 0.01 | 0.00 | 75 | 1011.2 |
| 20260509053841 | 60 | 211 | 0.0 | 0.9 | 0.00 | 0.01 | 0.00 | 75 | 1011.2 |
| 20260509053620 | 60 | 211 | 0.0 | 0.9 | 0.00 | 0.01 | 0.00 | 74 | 1011.1 |
| 20260509053441 | 60 | 211 | 0.0 | 0.9 | 0.00 | 0.01 | 0.00 | 74 | 1011.1 |
| 20260509053220 | 59 | 211 | 0.0 | 0.9 | 0.00 | 0.01 | 0.00 | 74 | 1011.1 |
| 20260509053021 | 60 | 211 | 0.0 | 0.9 | 0.00 | 0.01 | 0.00 | 74 | 1011.1 |
| 20260509052820 | 59 | 211 | 0.0 | 0.9 | 0.00 | 0.01 | 0.00 | 74 | 1011.2 |
| 20260509052621 | 59 | 211 | 0.0 | 0.9 | 0.00 | 0.01 | 0.00 | 74 | 1011.2 |
| 20260509052441 | 59 | 211 | 0.0 | 0.9 | 0.00 | 0.01 | 0.00 | 74 | 1011.1 |
| 20260509052220 | 59 | 211 | 0.0 | 0.9 | 0.00 | 0.01 | 0.00 | 74 | 1011.2 |
| 20260509052020 | 59 | 210 | 0.0 | 0.9 | 0.00 | 0.01 | 0.00 | 74 | 1011.2 |
| 20260509051820 | 59 | 210 | 0.0 | 0.9 | 0.00 | 0.01 | 0.00 | 74 | 1011.1 |
| 20260509051620 | 59 | 210 | 0.0 | 0.9 | 0.00 | 0.01 | 0.00 | 74 | 1011.1 |
| 20260509051441 | 59 | 210 | 0.0 | 0.9 | 0.00 | 0.01 | 0.00 | 75 | 1011.1 |
| 20260509051220 | 59 | 210 | 0.0 | 0.9 | 0.00 | 0.01 | 0.00 | 75 | 1011.1 |
| 20260509051020 | 59 | 210 | 0.0 | 0.9 | 0.00 | 0.01 | 0.00 | 75 | 1011.1 |
| 20260509050820 | 58 | 210 | 0.0 | 0.9 | 0.00 | 0.01 | 0.00 | 75 | 1011.1 |
| 20260509050620 | 58 | 0 | 0.0 | 0.0 | 0.00 | 0.01 | 0.00 | 75 | 1011.1 |
| 20260509050420 | 58 | 0 | 0.0 | 0.0 | 0.00 | 0.01 | 0.00 | 75 | 1011.1 |
| 20260509050241 | 58 | 0 | 0.0 | 0.0 | 0.00 | 0.01 | 0.00 | 75 | 1011.1 |
| 20260509050021 | 58 | 0 | 0.0 | 0.0 | 0.00 | 0.01 | 0.00 | 75 | 1011.1 |
| 20260509045842 | 58 | 0 | 0.0 | 0.0 | 0.00 | 0.01 | 0.01 | 75 | 1011.1 |
| 20260509045620 | 58 | 0 | 0.0 | 0.0 | 0.00 | 0.01 | 0.01 | 75 | 1011.1 |
| 20260509045441 | 58 | 0 | 0.0 | 0.0 | 0.00 | 0.01 | 0.01 | 75 | 1011.1 |
| 20260509045220 | 58 | 0 | 0.0 | 0.0 | 0.00 | 0.01 | 0.01 | 74 | 1011.2 |
| 20260509045020 | 58 | 0 | 0.0 | 0.0 | 0.00 | 0.01 | 0.01 | 75 | 1011.2 |
| 20260509044820 | 58 | 0 | 0.0 | 0.0 | 0.00 | 0.01 | 0.01 | 74 | 1011.2 |
| 20260509044620 | 58 | 0 | 0.0 | 0.0 | 0.00 | 0.01 | 0.01 | 74 | 1011.2 |
| 20260509044420 | 58 | 0 | 0.0 | 0.0 | 0.00 | 0.01 | 0.01 | 74 | 1011.2 |
| 20260509044241 | 58 | 0 | 0.0 | 0.0 | 0.00 | 0.01 | 0.01 | 74 | 1011.1 |
| 20260509044041 | 58 | 0 | 0.0 | 0.0 | 0.00 | 0.01 | 0.01 | 74 | 1011.0 |
| 20260509043841 | 58 | 0 | 0.0 | 0.0 | 0.00 | 0.01 | 0.01 | 73 | 1010.9 |
| 20260509043641 | 58 | 0 | 0.0 | 0.0 | 0.00 | 0.01 | 0.01 | 73 | 1010.9 |
| 20260509043420 | 58 | 0 | 0.0 | 0.0 | 0.00 | 0.01 | 0.01 | 73 | 1011.0 |
| 20260509043220 | 58 | 0 | 0.0 | 0.0 | 0.00 | 0.01 | 0.01 | 73 | 1010.9 |
| 20260509043020 | 58 | 0 | 0.0 | 0.0 | 0.00 | 0.01 | 0.01 | 73 | 1010.9 |
| 20260509042820 | 58 | 0 | 0.0 | 0.0 | 0.00 | 0.01 | 0.01 | 73 | 1010.9 |
| 20260509042620 | 58 | 0 | 0.0 | 0.0 | 0.00 | 0.01 | 0.01 | 73 | 1010.9 |
| 20260509042420 | 58 | 0 | 0.0 | 0.0 | 0.00 | 0.01 | 0.01 | 73 | 1011.0 |
| 20260509042241 | 58 | 0 | 0.0 | 0.0 | 0.00 | 0.01 | 0.01 | 72 | 1011.0 |
| 20260509042041 | 59 | 0 | 0.0 | 0.0 | 0.00 | 0.01 | 0.01 | 72 | 1011.0 |
| 20260509041841 | 59 | 0 | 0.0 | 0.0 | 0.00 | 0.01 | 0.01 | 72 | 1010.9 |
| 20260509041620 | 59 | 0 | 0.0 | 0.0 | 0.00 | 0.01 | 0.01 | 72 | 1011.0 |
| 20260509041421 | 59 | 0 | 0.0 | 0.0 | 0.00 | 0.01 | 0.01 | 72 | 1011.1 |
| 20260509041220 | 59 | 0 | 0.0 | 0.0 | 0.00 | 0.01 | 0.01 | 72 | 1011.1 |
| 20260509041020 | 59 | 0 | 0.0 | 0.0 | 0.00 | 0.01 | 0.01 | 72 | 1011.1 |
| 20260509040820 | 59 | 0 | 0.0 | 0.0 | 0.00 | 0.01 | 0.01 | 71 | 1011.1 |
| 20260509040620 | 59 | 0 | 0.0 | 0.0 | 0.00 | 0.01 | 0.01 | 71 | 1011.1 |
| 20260509040420 | 59 | 0 | 0.0 | 0.0 | 0.00 | 0.01 | 0.01 | 71 | 1011.2 |
| 20260509040220 | 59 | 0 | 0.0 | 0.0 | 0.00 | 0.01 | 0.01 | 71 | 1011.1 |
| 20260509040020 | 59 | 0 | 0.0 | 0.0 | 0.00 | 0.01 | 0.01 | 71 | 1011.1 |
| 20260509035841 | 59 | 0 | 0.0 | 0.0 | 0.00 | 0.01 | 0.01 | 71 | 1011.1 |
| 20260509035620 | 59 | 0 | 0.0 | 0.0 | 0.00 | 0.01 | 0.01 | 71 | 1011.2 |
| 20260509035441 | 59 | 0 | 0.0 | 0.0 | 0.00 | 0.01 | 0.01 | 71 | 1011.2 |
| 20260509035220 | 58 | 0 | 0.0 | 0.0 | 0.00 | 0.01 | 0.01 | 71 | 1011.2 |
| 20260509035020 | 58 | 0 | 0.0 | 0.0 | 0.00 | 0.01 | 0.01 | 70 | 1011.2 |
| 20260509034820 | 58 | 0 | 0.0 | 0.0 | 0.00 | 0.01 | 0.01 | 70 | 1011.2 |
| 20260509034620 | 58 | 0 | 0.0 | 0.0 | 0.00 | 0.01 | 0.01 | 70 | 1011.2 |
| 20260509034421 | 58 | 0 | 0.0 | 0.0 | 0.00 | 0.01 | 0.01 | 70 | 1011.2 |
| 20260509034220 | 59 | 0 | 0.0 | 0.0 | 0.00 | 0.01 | 0.01 | 70 | 1011.2 |
| 20260509034020 | 59 | 0 | 0.0 | 0.0 | 0.00 | 0.01 | 0.01 | 69 | 1011.2 |
| 20260509033820 | 59 | 0 | 0.0 | 0.0 | 0.00 | 0.01 | 0.01 | 69 | 1011.2 |
| 20260509033641 | 59 | 0 | 0.0 | 0.0 | 0.00 | 0.01 | 0.01 | 69 | 1011.2 |
| 20260509033420 | 59 | 0 | 0.0 | 0.0 | 0.00 | 0.01 | 0.01 | 69 | 1011.2 |
| 20260509033220 | 59 | 0 | 0.0 | 0.0 | 0.00 | 0.01 | 0.01 | 69 | 1011.2 |
| 20260509033020 | 59 | 0 | 0.0 | 0.0 | 0.00 | 0.01 | 0.01 | 69 | 1011.2 |
| 20260509032820 | 59 | 0 | 0.0 | 0.0 | 0.00 | 0.01 | 0.01 | 69 | 1011.3 |
| 20260509032620 | 59 | 0 | 0.0 | 0.0 | 0.00 | 0.01 | 0.01 | 69 | 1011.3 |
| 20260509032420 | 59 | 0 | 0.0 | 0.0 | 0.00 | 0.01 | 0.01 | 69 | 1011.3 |
| 20260509032220 | 59 | 0 | 0.0 | 0.0 | 0.00 | 0.01 | 0.01 | 69 | 1011.3 |
| 20260509032020 | 59 | 0 | 0.0 | 0.0 | 0.00 | 0.01 | 0.01 | 69 | 1011.3 |
| 20260509031820 | 59 | 0 | 0.0 | 0.0 | 0.00 | 0.01 | 0.01 | 69 | 1011.3 |
| 20260509031641 | 59 | 0 | 0.0 | 0.0 | 0.00 | 0.01 | 0.01 | 69 | 1011.3 |
| 20260509031420 | 59 | 0 | 0.0 | 0.0 | 0.00 | 0.01 | 0.01 | 68 | 1011.4 |
| 20260509031221 | 59 | 0 | 0.0 | 0.0 | 0.00 | 0.01 | 0.01 | 69 | 1011.4 |
| 20260509031020 | 59 | 0 | 0.0 | 0.0 | 0.00 | 0.01 | 0.01 | 69 | 1011.5 |
| 20260509030820 | 59 | 0 | 0.0 | 0.0 | 0.00 | 0.01 | 0.01 | 67 | 1011.4 |
| 20260509030620 | 60 | 0 | 0.0 | 0.0 | 0.00 | 0.01 | 0.01 | 67 | 1011.4 |
| 20260509030420 | 60 | 0 | 0.0 | 0.0 | 0.00 | 0.01 | 0.01 | 67 | 1011.4 |
| 20260509030220 | 60 | 0 | 0.0 | 0.0 | 0.00 | 0.01 | 0.01 | 67 | 1011.3 |
| 20260509030020 | 60 | 0 | 0.0 | 0.0 | 0.00 | 0.01 | 0.01 | 68 | 1011.4 |
| 20260509025820 | 60 | 0 | 0.0 | 0.0 | 0.00 | 0.01 | 0.01 | 67 | 1011.4 |
| 20260509025620 | 60 | 0 | 0.0 | 0.0 | 0.00 | 0.01 | 0.01 | 67 | 1011.4 |
| 20260509025443 | 60 | 0 | 0.0 | 0.0 | 0.00 | 0.01 | 0.01 | 67 | 1011.4 |
| 20260509025220 | 60 | 0 | 0.0 | 0.0 | 0.00 | 0.01 | 0.01 | 67 | 1011.4 |
| 20260509025041 | 60 | 0 | 0.0 | 0.0 | 0.00 | 0.01 | 0.01 | 67 | 1011.4 |
| 20260509024820 | 60 | 0 | 0.0 | 0.0 | 0.00 | 0.01 | 0.01 | 67 | 1011.4 |
| 20260509024620 | 60 | 0 | 0.0 | 0.0 | 0.00 | 0.01 | 0.01 | 67 | 1011.4 |
| 20260509024420 | 60 | 0 | 0.0 | 0.0 | 0.00 | 0.01 | 0.01 | 66 | 1011.4 |
| 20260509024220 | 60 | 0 | 0.0 | 0.0 | 0.00 | 0.01 | 0.01 | 66 | 1011.5 |
| 20260509024041 | 60 | 0 | 0.0 | 0.0 | 0.00 | 0.01 | 0.01 | 66 | 1011.4 |
| 20260509023820 | 60 | 0 | 0.0 | 0.0 | 0.00 | 0.01 | 0.01 | 66 | 1011.4 |
| 20260509023620 | 60 | 0 | 0.0 | 0.0 | 0.00 | 0.01 | 0.01 | 67 | 1011.4 |
| 20260509023420 | 60 | 0 | 0.0 | 0.0 | 0.00 | 0.01 | 0.01 | 67 | 1011.4 |
| 20260509023241 | 60 | 0 | 0.0 | 0.0 | 0.00 | 0.01 | 0.01 | 67 | 1011.4 |
| 20260509023020 | 60 | 0 | 0.0 | 0.0 | 0.00 | 0.01 | 0.01 | 67 | 1011.3 |
| 20260509022820 | 60 | 0 | 0.0 | 0.0 | 0.00 | 0.01 | 0.01 | 67 | 1011.3 |
| 20260509022621 | 61 | 0 | 0.0 | 0.0 | 0.00 | 0.01 | 0.01 | 67 | 1011.4 |
| 20260509022420 | 61 | 0 | 0.0 | 0.0 | 0.00 | 0.01 | 0.01 | 66 | 1011.3 |
| 20260509022241 | 61 | 0 | 0.0 | 0.0 | 0.00 | 0.01 | 0.01 | 66 | 1011.4 |
| 20260509022041 | 61 | 0 | 0.0 | 0.0 | 0.00 | 0.01 | 0.01 | 65 | 1011.4 |
| 20260509021820 | 61 | 0 | 0.0 | 0.0 | 0.00 | 0.01 | 0.01 | 65 | 1011.3 |
| 20260509021641 | 61 | 0 | 0.0 | 0.0 | 0.00 | 0.01 | 0.01 | 65 | 1011.3 |
| 20260509021420 | 61 | 0 | 0.0 | 0.0 | 0.00 | 0.01 | 0.01 | 65 | 1011.3 |
| 20260509021220 | 61 | 0 | 0.0 | 0.0 | 0.00 | 0.01 | 0.01 | 65 | 1011.4 |
| 20260509021020 | 61 | 0 | 0.0 | 0.0 | 0.00 | 0.01 | 0.01 | 65 | 1011.4 |
| 20260509020820 | 61 | 0 | 0.0 | 0.0 | 0.00 | 0.01 | 0.01 | 65 | 1011.4 |
| 20260509020621 | 61 | 0 | 0.0 | 0.0 | 0.00 | 0.01 | 0.01 | 65 | 1011.4 |
| 20260509020420 | 61 | 0 | 0.0 | 0.0 | 0.00 | 0.01 | 0.01 | 66 | 1011.4 |
| 20260509020220 | 61 | 0 | 0.0 | 0.0 | 0.00 | 0.01 | 0.01 | 65 | 1011.3 |
| 20260509020020 | 62 | 0 | 0.0 | 0.0 | 0.00 | 0.01 | 0.01 | 65 | 1011.3 |
| 20260509015820 | 62 | 0 | 0.0 | 0.0 | 0.00 | 0.01 | 0.01 | 65 | 1011.3 |
| 20260509015620 | 62 | 0 | 0.0 | 0.0 | 0.00 | 0.01 | 0.01 | 65 | 1011.3 |
| 20260509015441 | 62 | 0 | 0.0 | 0.0 | 0.00 | 0.01 | 0.01 | 65 | 1011.3 |
| 20260509015220 | 62 | 0 | 0.0 | 0.0 | 0.00 | 0.01 | 0.01 | 65 | 1011.3 |
| 20260509015041 | 62 | 0 | 0.0 | 0.0 | 0.00 | 0.01 | 0.01 | 65 | 1011.3 |
| 20260509014820 | 62 | 0 | 0.0 | 0.0 | 0.00 | 0.01 | 0.01 | 64 | 1011.2 |
| 20260509014620 | 62 | 0 | 0.0 | 0.0 | 0.00 | 0.01 | 0.01 | 64 | 1011.2 |
| 20260509014420 | 62 | 0 | 0.0 | 0.0 | 0.00 | 0.01 | 0.01 | 64 | 1011.2 |
| 20260509014220 | 62 | 0 | 0.0 | 0.0 | 0.00 | 0.01 | 0.01 | 64 | 1011.2 |
| 20260509014020 | 62 | 0 | 0.0 | 0.0 | 0.00 | 0.01 | 0.01 | 64 | 1011.2 |
| 20260509013820 | 62 | 0 | 0.0 | 0.0 | 0.00 | 0.01 | 0.01 | 64 | 1011.2 |
| 20260509013620 | 62 | 0 | 0.0 | 0.0 | 0.00 | 0.01 | 0.01 | 64 | 1011.2 |
| 20260509013441 | 62 | 0 | 0.0 | 0.0 | 0.00 | 0.01 | 0.01 | 64 | 1011.3 |
| 20260509013220 | 62 | 0 | 0.0 | 0.0 | 0.00 | 0.01 | 0.01 | 64 | 1011.2 |
| 20260509013021 | 63 | 0 | 0.0 | 0.0 | 0.00 | 0.01 | 0.01 | 64 | 1011.2 |
| 20260509012841 | 63 | 0 | 0.0 | 0.0 | 0.00 | 0.01 | 0.01 | 64 | 1011.2 |
| 20260509012620 | 63 | 0 | 0.0 | 0.0 | 0.00 | 0.01 | 0.01 | 64 | 1011.2 |
| 20260509012441 | 63 | 0 | 0.0 | 0.0 | 0.00 | 0.01 | 0.01 | 64 | 1011.2 |
| 20260509012220 | 63 | 0 | 0.0 | 0.0 | 0.00 | 0.01 | 0.01 | 64 | 1011.2 |
| 20260509012020 | 63 | 0 | 0.0 | 0.0 | 0.00 | 0.01 | 0.01 | 64 | 1011.1 |
| 20260509011841 | 63 | 0 | 0.0 | 0.0 | 0.00 | 0.01 | 0.01 | 64 | 1011.2 |
| 20260509011620 | 64 | 0 | 0.0 | 0.0 | 0.00 | 0.01 | 0.01 | 63 | 1011.1 |
| 20260509011420 | 64 | 0 | 0.0 | 0.0 | 0.00 | 0.01 | 0.01 | 62 | 1011.1 |
| 20260509011220 | 64 | 0 | 0.0 | 0.0 | 0.00 | 0.01 | 0.01 | 62 | 1011.1 |
| 20260509011041 | 64 | 0 | 0.0 | 0.0 | 0.00 | 0.01 | 0.01 | 62 | 1011.2 |
| 20260509010841 | 64 | 0 | 0.0 | 0.0 | 0.00 | 0.01 | 0.01 | 62 | 1011.2 |
| 20260509010620 | 64 | 0 | 0.0 | 0.0 | 0.00 | 0.01 | 0.01 | 62 | 1011.2 |
| 20260509010420 | 64 | 0 | 0.0 | 0.0 | 0.00 | 0.01 | 0.01 | 62 | 1011.1 |
| 20260509010220 | 65 | 0 | 0.0 | 0.0 | 0.00 | 0.01 | 0.01 | 62 | 1011.1 |
| 20260509010020 | 65 | 0 | 0.0 | 0.0 | 0.00 | 0.01 | 0.01 | 62 | 1011.1 |
| 20260509005820 | 65 | 0 | 0.0 | 0.0 | 0.00 | 0.01 | 0.01 | 62 | 1011.1 |
| 20260509005641 | 65 | 0 | 0.0 | 0.0 | 0.00 | 0.01 | 0.01 | 61 | 1011.1 |
| 20260509005420 | 65 | 0 | 0.0 | 0.0 | 0.00 | 0.01 | 0.01 | 61 | 1011.1 |
| 20260509005241 | 65 | 0 | 0.0 | 0.0 | 0.00 | 0.01 | 0.01 | 61 | 1011.1 |
| 20260509005041 | 66 | 0 | 0.0 | 0.0 | 0.00 | 0.01 | 0.01 | 61 | 1011.2 |
| 20260509004820 | 66 | 0 | 0.0 | 0.0 | 0.00 | 0.01 | 0.01 | 60 | 1011.2 |
| 20260509004641 | 66 | 0 | 0.0 | 0.0 | 0.00 | 0.01 | 0.01 | 60 | 1011.3 |
| 20260509004420 | 66 | 0 | 0.0 | 0.0 | 0.00 | 0.01 | 0.01 | 60 | 1011.3 |
| 20260509004241 | 66 | 0 | 0.0 | 0.0 | 0.00 | 0.01 | 0.01 | 60 | 1011.3 |
| 20260509004020 | 66 | 0 | 0.0 | 0.0 | 0.00 | 0.01 | 0.01 | 60 | 1011.3 |
| 20260509003841 | 67 | 0 | 0.0 | 0.0 | 0.00 | 0.01 | 0.01 | 59 | 1011.4 |
| 20260509003641 | 67 | 0 | 0.0 | 0.0 | 0.00 | 0.01 | 0.01 | 59 | 1011.4 |
| 20260509003441 | 67 | 0 | 0.0 | 0.0 | 0.00 | 0.01 | 0.01 | 59 | 1011.5 |
| 20260509003220 | 67 | 0 | 0.0 | 0.0 | 0.00 | 0.01 | 0.01 | 58 | 1011.5 |
| 20260509003020 | 67 | 0 | 0.0 | 0.0 | 0.00 | 0.01 | 0.01 | 58 | 1011.5 |
| 20260509002821 | 67 | 0 | 0.0 | 0.0 | 0.00 | 0.01 | 0.01 | 58 | 1011.6 |
| 20260509002620 | 68 | 0 | 0.0 | 0.0 | 0.00 | 0.01 | 0.01 | 57 | 1011.6 |
| 20260509002420 | 68 | 0 | 0.0 | 0.0 | 0.00 | 0.01 | 0.01 | 57 | 1011.5 |
| 20260509002220 | 68 | 0 | 0.0 | 0.0 | 0.00 | 0.01 | 0.01 | 57 | 1011.5 |
| 20260509002020 | 68 | 0 | 0.0 | 0.0 | 0.00 | 0.01 | 0.01 | 56 | 1011.5 |
| 20260509001820 | 68 | 0 | 0.0 | 0.0 | 0.00 | 0.01 | 0.01 | 56 | 1011.5 |
| 20260509001620 | 69 | 0 | 0.0 | 0.0 | 0.00 | 0.01 | 0.01 | 56 | 1011.5 |
| 20260509001420 | 69 | 0 | 0.0 | 0.0 | 0.00 | 0.01 | 0.01 | 55 | 1011.5 |
| 20260509001220 | 69 | 199 | 0.0 | 0.9 | 0.00 | 0.01 | 0.01 | 55 | 1011.5 |
| 20260509001020 | 69 | 199 | 0.0 | 0.9 | 0.00 | 0.01 | 0.01 | 55 | 1011.5 |
| 20260509000820 | 69 | 204 | 0.0 | 0.9 | 0.00 | 0.01 | 0.01 | 55 | 1011.5 |
| 20260509000641 | 69 | 204 | 0.0 | 0.9 | 0.00 | 0.01 | 0.01 | 54 | 1011.5 |
| 20260509000420 | 70 | 209 | 0.0 | 0.9 | 0.00 | 0.01 | 0.01 | 54 | 1011.5 |
| 20260509000221 | 70 | 214 | 0.0 | 0.9 | 0.00 | 0.01 | 0.01 | 54 | 1011.5 |
| 20260509000021 | 70 | 214 | 0.0 | 0.9 | 0.00 | 0.01 | 0.01 | 53 | 1011.6 |
| 20260508235841 | 70 | 214 | 0.0 | 0.9 | 0.00 | 0.01 | 0.01 | 53 | 1011.5 |
| 20260508235620 | 70 | 214 | 0.0 | 0.9 | 0.00 | 0.01 | 0.01 | 52 | 1011.6 |
| 20260508235441 | 70 | 214 | 0.0 | 0.9 | 0.00 | 0.01 | 0.01 | 52 | 1011.6 |
| 20260508235220 | 70 | 213 | 0.0 | 0.9 | 0.00 | 0.01 | 0.01 | 52 | 1011.6 |
| 20260508235020 | 70 | 213 | 0.0 | 0.9 | 0.00 | 0.01 | 0.01 | 51 | 1011.6 |
| 20260508234841 | 70 | 213 | 0.0 | 0.9 | 0.00 | 0.01 | 0.01 | 51 | 1011.6 |
| 20260508234641 | 70 | 213 | 0.0 | 0.9 | 0.00 | 0.01 | 0.01 | 52 | 1011.7 |
| 20260508234420 | 71 | 177 | 0.0 | 0.9 | 0.00 | 0.01 | 0.01 | 51 | 1011.7 |
| 20260508234220 | 71 | 177 | 0.0 | 0.9 | 0.00 | 0.01 | 0.01 | 51 | 1011.8 |
| 20260508234020 | 71 | 174 | 0.0 | 0.9 | 0.00 | 0.01 | 0.01 | 51 | 1011.8 |
| 20260508233820 | 71 | 188 | 0.0 | 0.9 | 0.00 | 0.01 | 0.01 | 50 | 1011.8 |
| 20260508233620 | 71 | 185 | 0.0 | 0.9 | 0.00 | 0.01 | 0.01 | 50 | 1011.8 |
| 20260508233420 | 71 | 189 | 0.0 | 0.9 | 0.00 | 0.01 | 0.01 | 50 | 1011.8 |
| 20260508233220 | 71 | 189 | 0.0 | 0.9 | 0.00 | 0.01 | 0.01 | 49 | 1011.8 |
| 20260508233043 | 71 | 189 | 0.0 | 0.9 | 0.00 | 0.01 | 0.01 | 49 | 1011.9 |
| 20260508232841 | 71 | 167 | 0.0 | 0.9 | 0.00 | 0.01 | 0.01 | 49 | 1011.9 |
| 20260508232620 | 71 | 172 | 0.0 | 0.9 | 0.00 | 0.01 | 0.01 | 49 | 1011.9 |
| 20260508232420 | 71 | 172 | 0.0 | 0.9 | 0.00 | 0.01 | 0.01 | 49 | 1012.0 |
| 20260508232220 | 71 | 172 | 0.0 | 0.9 | 0.00 | 0.01 | 0.01 | 48 | 1012.0 |
| 20260508232020 | 71 | 171 | 0.0 | 0.9 | 0.00 | 0.01 | 0.01 | 48 | 1012.0 |
| 20260508231820 | 71 | 171 | 0.0 | 0.9 | 0.00 | 0.01 | 0.01 | 48 | 1012.1 |
| 20260508231641 | 72 | 171 | 0.0 | 0.9 | 0.00 | 0.01 | 0.01 | 48 | 1012.1 |
| 20260508231441 | 72 | 0 | 0.0 | 0.0 | 0.00 | 0.01 | 0.01 | 48 | 1012.2 |
| 20260508231220 | 72 | 0 | 0.0 | 0.0 | 0.00 | 0.01 | 0.01 | 48 | 1012.2 |
| 20260508231041 | 72 | 169 | 0.0 | 0.9 | 0.00 | 0.01 | 0.01 | 48 | 1012.2 |
| 20260508230820 | 72 | 170 | 0.0 | 0.9 | 0.00 | 0.01 | 0.01 | 48 | 1012.2 |
| 20260508230620 | 72 | 165 | 0.0 | 0.9 | 0.00 | 0.01 | 0.01 | 46 | 1012.2 |
| 20260508230420 | 72 | 174 | 0.0 | 0.9 | 0.00 | 0.01 | 0.01 | 47 | 1012.3 |
| 20260508230220 | 72 | 182 | 0.0 | 0.9 | 0.00 | 0.01 | 0.01 | 45 | 1012.3 |
| 20260508230020 | 72 | 186 | 0.0 | 0.9 | 0.00 | 0.01 | 0.01 | 46 | 1012.3 |
| 20260508225820 | 72 | 190 | 0.0 | 0.9 | 0.00 | 0.01 | 0.01 | 46 | 1012.4 |
| 20260508225620 | 72 | 211 | 0.0 | 0.9 | 0.00 | 0.01 | 0.01 | 47 | 1012.4 |
| 20260508225420 | 72 | 205 | 0.0 | 0.9 | 0.00 | 0.01 | 0.01 | 47 | 1012.4 |
| 20260508225220 | 72 | 194 | 0.0 | 0.9 | 0.00 | 0.01 | 0.01 | 48 | 1012.4 |
| 20260508225020 | 72 | 196 | 0.9 | 0.9 | 0.00 | 0.01 | 0.01 | 48 | 1012.3 |
| 20260508224821 | 72 | 190 | 0.9 | 1.7 | 0.00 | 0.01 | 0.01 | 47 | 1012.4 |
| 20260508224620 | 72 | 186 | 0.9 | 1.7 | 0.00 | 0.01 | 0.01 | 47 | 1012.4 |
| 20260508224420 | 72 | 194 | 0.9 | 1.7 | 0.00 | 0.01 | 0.01 | 46 | 1012.4 |
| 20260508224220 | 72 | 183 | 0.9 | 1.7 | 0.00 | 0.01 | 0.01 | 46 | 1012.4 |
| 20260508224020 | 72 | 181 | 0.9 | 1.7 | 0.00 | 0.01 | 0.01 | 46 | 1012.4 |
| 20260508223820 | 72 | 181 | 0.9 | 1.7 | 0.00 | 0.01 | 0.01 | 45 | 1012.4 |
| 20260508223620 | 72 | 182 | 0.9 | 1.7 | 0.00 | 0.01 | 0.01 | 45 | 1012.5 |
| 20260508223420 | 72 | 187 | 0.9 | 2.6 | 0.00 | 0.01 | 0.01 | 45 | 1012.4 |
| 20260508223220 | 72 | 195 | 0.9 | 2.6 | 0.00 | 0.01 | 0.01 | 46 | 1012.4 |
| 20260508223041 | 72 | 189 | 0.9 | 2.6 | 0.00 | 0.01 | 0.01 | 45 | 1012.5 |
| 20260508222820 | 72 | 190 | 0.9 | 2.6 | 0.00 | 0.01 | 0.01 | 44 | 1012.4 |
| 20260508222641 | 72 | 197 | 0.9 | 2.6 | 0.00 | 0.01 | 0.01 | 45 | 1012.4 |
| 20260508222420 | 72 | 195 | 0.9 | 2.6 | 0.00 | 0.01 | 0.01 | 47 | 1012.4 |
| 20260508222220 | 72 | 190 | 0.9 | 2.6 | 0.00 | 0.01 | 0.01 | 45 | 1012.4 |
| 20260508222020 | 72 | 194 | 0.9 | 2.6 | 0.00 | 0.01 | 0.01 | 45 | 1012.3 |
| 20260508221820 | 72 | 188 | 0.9 | 2.6 | 0.00 | 0.01 | 0.01 | 45 | 1012.3 |
| 20260508221641 | 72 | 174 | 0.9 | 2.6 | 0.00 | 0.01 | 0.01 | 46 | 1012.3 |
| 20260508221420 | 72 | 165 | 0.9 | 2.6 | 0.00 | 0.01 | 0.01 | 45 | 1012.3 |
| 20260508221220 | 72 | 168 | 0.9 | 2.6 | 0.00 | 0.01 | 0.01 | 45 | 1012.3 |
| 20260508221020 | 72 | 177 | 0.9 | 2.6 | 0.00 | 0.01 | 0.01 | 44 | 1012.3 |
| 20260508220841 | 72 | 180 | 0.9 | 2.6 | 0.00 | 0.01 | 0.01 | 45 | 1012.3 |
| 20260508220641 | 72 | 192 | 0.9 | 2.6 | 0.00 | 0.01 | 0.01 | 46 | 1012.3 |
| 20260508220420 | 72 | 216 | 0.9 | 2.6 | 0.00 | 0.01 | 0.01 | 46 | 1012.3 |
| 20260508220241 | 72 | 222 | 0.9 | 2.6 | 0.00 | 0.01 | 0.01 | 46 | 1012.3 |
| 20260508220020 | 72 | 223 | 0.9 | 2.6 | 0.00 | 0.01 | 0.01 | 46 | 1012.3 |
| 20260508215841 | 72 | 220 | 0.9 | 2.6 | 0.00 | 0.01 | 0.01 | 46 | 1012.4 |
| 20260508215641 | 72 | 212 | 0.9 | 2.6 | 0.00 | 0.01 | 0.01 | 45 | 1012.3 |
| 20260508215420 | 72 | 209 | 0.9 | 1.7 | 0.00 | 0.01 | 0.01 | 45 | 1012.3 |
| 20260508215220 | 72 | 199 | 0.0 | 1.7 | 0.00 | 0.01 | 0.01 | 48 | 1012.3 |
| 20260508215020 | 72 | 189 | 0.0 | 1.7 | 0.00 | 0.01 | 0.01 | 46 | 1012.3 |
| 20260508214820 | 72 | 192 | 0.0 | 1.7 | 0.00 | 0.01 | 0.01 | 45 | 1012.3 |
| 20260508214620 | 72 | 198 | 0.9 | 1.7 | 0.00 | 0.01 | 0.01 | 46 | 1012.3 |
| 20260508214420 | 72 | 205 | 0.9 | 1.7 | 0.00 | 0.01 | 0.01 | 45 | 1012.4 |
| 20260508214220 | 72 | 212 | 0.9 | 1.7 | 0.00 | 0.01 | 0.01 | 46 | 1012.4 |
| 20260508214041 | 72 | 214 | 0.9 | 1.7 | 0.00 | 0.01 | 0.01 | 45 | 1012.3 |
| 20260508213820 | 72 | 213 | 0.0 | 1.7 | 0.00 | 0.01 | 0.01 | 43 | 1012.4 |
| 20260508213620 | 72 | 211 | 0.0 | 1.7 | 0.00 | 0.01 | 0.01 | 45 | 1012.4 |
| 20260508213420 | 72 | 208 | 0.0 | 1.7 | 0.00 | 0.01 | 0.01 | 45 | 1012.5 |
| 20260508213220 | 72 | 207 | 0.0 | 1.7 | 0.00 | 0.01 | 0.01 | 46 | 1012.5 |
| 20260508213020 | 72 | 209 | 0.0 | 1.7 | 0.00 | 0.01 | 0.01 | 46 | 1012.6 |
| 20260508212841 | 72 | 213 | 0.9 | 2.6 | 0.00 | 0.01 | 0.01 | 47 | 1012.6 |
| 20260508212620 | 72 | 219 | 0.9 | 2.6 | 0.00 | 0.01 | 0.01 | 47 | 1012.6 |
| 20260508212420 | 72 | 221 | 0.9 | 2.6 | 0.00 | 0.01 | 0.01 | 45 | 1012.5 |
| 20260508212241 | 72 | 220 | 0.9 | 2.6 | 0.00 | 0.01 | 0.01 | 46 | 1012.5 |
| 20260508212041 | 72 | 218 | 0.9 | 2.6 | 0.00 | 0.01 | 0.01 | 46 | 1012.6 |
| 20260508211821 | 72 | 218 | 0.9 | 2.6 | 0.00 | 0.01 | 0.01 | 47 | 1012.6 |
| 20260508211620 | 72 | 227 | 0.9 | 2.6 | 0.00 | 0.01 | 0.01 | 47 | 1012.7 |
| 20260508211420 | 72 | 227 | 0.9 | 2.6 | 0.00 | 0.01 | 0.01 | 46 | 1012.7 |
| 20260508211221 | 72 | 217 | 0.9 | 2.6 | 0.00 | 0.01 | 0.01 | 46 | 1012.7 |
| 20260508211020 | 72 | 207 | 0.9 | 2.6 | 0.00 | 0.01 | 0.01 | 47 | 1012.7 |
| 20260508210820 | 72 | 206 | 0.9 | 2.6 | 0.00 | 0.01 | 0.01 | 45 | 1012.7 |
| 20260508210641 | 72 | 197 | 0.9 | 2.6 | 0.00 | 0.01 | 0.01 | 48 | 1012.8 |
| 20260508210420 | 72 | 198 | 0.9 | 1.7 | 0.00 | 0.01 | 0.01 | 46 | 1012.8 |
| 20260508210220 | 72 | 212 | 0.9 | 1.7 | 0.00 | 0.01 | 0.01 | 48 | 1012.8 |
| 20260508210020 | 72 | 232 | 0.9 | 1.7 | 0.00 | 0.01 | 0.01 | 48 | 1012.9 |
| 20260508205820 | 72 | 233 | 0.9 | 1.7 | 0.00 | 0.01 | 0.01 | 46 | 1012.9 |
| 20260508205620 | 72 | 229 | 0.9 | 2.6 | 0.00 | 0.01 | 0.01 | 48 | 1012.9 |
| 20260508205420 | 72 | 215 | 0.9 | 2.6 | 0.00 | 0.01 | 0.01 | 47 | 1012.9 |
| 20260508205220 | 72 | 218 | 0.9 | 2.6 | 0.00 | 0.01 | 0.01 | 47 | 1013.0 |
| 20260508205020 | 72 | 218 | 0.9 | 3.5 | 0.00 | 0.01 | 0.01 | 45 | 1013.0 |
| 20260508204820 | 72 | 215 | 0.9 | 3.5 | 0.00 | 0.01 | 0.01 | 46 | 1013.0 |
| 20260508204641 | 72 | 211 | 0.0 | 3.5 | 0.00 | 0.01 | 0.01 | 47 | 1013.0 |
| 20260508204420 | 72 | 211 | 0.0 | 3.5 | 0.00 | 0.01 | 0.01 | 47 | 1013.0 |
| 20260508204220 | 72 | 202 | 0.0 | 3.5 | 0.00 | 0.01 | 0.01 | 46 | 1013.0 |
| 20260508204020 | 72 | 197 | 0.9 | 1.7 | 0.00 | 0.01 | 0.01 | 47 | 1013.1 |
| 20260508203841 | 72 | 196 | 0.9 | 2.6 | 0.00 | 0.01 | 0.01 | 46 | 1013.1 |
| 20260508203641 | 72 | 226 | 0.9 | 2.6 | 0.00 | 0.01 | 0.01 | 46 | 1013.2 |
| 20260508203420 | 72 | 223 | 0.9 | 2.6 | 0.00 | 0.01 | 0.01 | 47 | 1013.2 |
| 20260508203220 | 72 | 223 | 0.9 | 2.6 | 0.00 | 0.01 | 0.01 | 48 | 1013.2 |
| 20260508203041 | 72 | 221 | 0.9 | 3.5 | 0.00 | 0.01 | 0.01 | 45 | 1013.3 |
| 20260508202820 | 72 | 212 | 0.9 | 3.5 | 0.00 | 0.01 | 0.01 | 46 | 1013.2 |
| 20260508202620 | 72 | 205 | 0.9 | 3.5 | 0.00 | 0.01 | 0.01 | 46 | 1013.3 |
| 20260508202421 | 72 | 207 | 0.9 | 3.5 | 0.00 | 0.01 | 0.01 | 46 | 1013.3 |
| 20260508202221 | 72 | 212 | 0.9 | 3.5 | 0.00 | 0.01 | 0.01 | 47 | 1013.3 |
| 20260508202020 | 72 | 221 | 0.9 | 2.6 | 0.00 | 0.01 | 0.01 | 46 | 1013.3 |
| 20260508201820 | 72 | 229 | 0.9 | 2.6 | 0.00 | 0.01 | 0.01 | 47 | 1013.3 |
| 20260508201620 | 72 | 231 | 0.9 | 4.3 | 0.00 | 0.01 | 0.01 | 46 | 1013.4 |
| 20260508201420 | 72 | 229 | 0.9 | 4.3 | 0.00 | 0.01 | 0.01 | 48 | 1013.5 |
| 20260508201241 | 72 | 224 | 0.9 | 4.3 | 0.00 | 0.01 | 0.01 | 45 | 1013.5 |
| 20260508201020 | 72 | 220 | 0.9 | 4.3 | 0.00 | 0.01 | 0.01 | 47 | 1013.6 |
| 20260508200820 | 72 | 215 | 0.9 | 4.3 | 0.00 | 0.01 | 0.01 | 46 | 1013.6 |
| 20260508200620 | 72 | 209 | 0.9 | 2.6 | 0.00 | 0.01 | 0.01 | 46 | 1013.6 |
| 20260508200420 | 72 | 205 | 0.9 | 2.6 | 0.00 | 0.01 | 0.01 | 45 | 1013.6 |
| 20260508200241 | 73 | 195 | 0.0 | 1.7 | 0.00 | 0.01 | 0.01 | 47 | 1013.7 |
| 20260508200020 | 72 | 188 | 0.0 | 1.7 | 0.00 | 0.01 | 0.01 | 47 | 1013.7 |
| 20260508195841 | 72 | 202 | 0.0 | 1.7 | 0.00 | 0.01 | 0.01 | 47 | 1013.7 |
| 20260508195620 | 72 | 230 | 0.0 | 1.7 | 0.00 | 0.01 | 0.01 | 48 | 1013.8 |
| 20260508195420 | 72 | 243 | 0.0 | 1.7 | 0.00 | 0.01 | 0.01 | 50 | 1013.8 |
| 20260508195220 | 72 | 246 | 0.0 | 1.7 | 0.00 | 0.01 | 0.01 | 49 | 1013.8 |
| 20260508195020 | 72 | 243 | 0.0 | 1.7 | 0.00 | 0.02 | 0.01 | 47 | 1013.9 |
| 20260508194820 | 72 | 238 | 0.9 | 1.7 | 0.00 | 0.02 | 0.01 | 48 | 1013.9 |
| 20260508194641 | 72 | 227 | 0.9 | 2.6 | 0.00 | 0.02 | 0.01 | 51 | 1014.0 |
| 20260508194420 | 72 | 216 | 0.9 | 3.5 | 0.00 | 0.02 | 0.01 | 51 | 1014.0 |
| 20260508194220 | 72 | 219 | 0.9 | 3.5 | 0.00 | 0.02 | 0.01 | 48 | 1014.0 |
| 20260508194020 | 72 | 211 | 0.9 | 3.5 | 0.00 | 0.02 | 0.01 | 47 | 1014.1 |
| 20260508193841 | 72 | 209 | 0.9 | 3.5 | 0.00 | 0.02 | 0.01 | 45 | 1014.2 |
| 20260508193641 | 72 | 208 | 0.9 | 3.5 | 0.00 | 0.02 | 0.01 | 45 | 1014.2 |
| 20260508193420 | 72 | 205 | 0.9 | 3.5 | 0.00 | 0.02 | 0.01 | 46 | 1014.2 |
| 20260508193220 | 72 | 199 | 0.9 | 2.6 | 0.00 | 0.02 | 0.01 | 49 | 1014.2 |
| 20260508193020 | 72 | 214 | 0.9 | 1.7 | 0.00 | 0.02 | 0.01 | 47 | 1014.2 |
| 20260508192820 | 72 | 216 | 0.9 | 1.7 | 0.00 | 0.02 | 0.01 | 48 | 1014.3 |
| 20260508192620 | 71 | 219 | 0.9 | 2.6 | 0.00 | 0.02 | 0.01 | 48 | 1014.2 |
| 20260508192420 | 71 | 217 | 0.9 | 2.6 | 0.00 | 0.02 | 0.01 | 48 | 1014.2 |
| 20260508192220 | 71 | 214 | 0.9 | 2.6 | 0.00 | 0.02 | 0.01 | 49 | 1014.4 |
| 20260508192041 | 71 | 212 | 0.9 | 3.5 | 0.00 | 0.02 | 0.01 | 48 | 1014.4 |
| 20260508191820 | 71 | 214 | 0.9 | 4.3 | 0.00 | 0.02 | 0.01 | 48 | 1014.4 |
| 20260508191620 | 71 | 215 | 0.9 | 4.3 | 0.00 | 0.02 | 0.01 | 48 | 1014.5 |
| 20260508191420 | 71 | 213 | 0.9 | 4.3 | 0.00 | 0.02 | 0.01 | 47 | 1014.5 |
| 20260508191241 | 71 | 202 | 0.9 | 4.3 | 0.00 | 0.02 | 0.01 | 46 | 1014.5 |
| 20260508191041 | 71 | 200 | 0.9 | 4.3 | 0.00 | 0.02 | 0.01 | 48 | 1014.5 |
| 20260508190842 | 71 | 198 | 0.9 | 4.3 | 0.00 | 0.02 | 0.01 | 49 | 1014.6 |
| 20260508190620 | 71 | 185 | 0.9 | 3.5 | 0.00 | 0.02 | 0.01 | 49 | 1014.6 |
| 20260508190420 | 71 | 184 | 0.9 | 3.5 | 0.00 | 0.02 | 0.01 | 48 | 1014.6 |
| 20260508190220 | 71 | 190 | 1.7 | 3.5 | 0.00 | 0.02 | 0.01 | 50 | 1014.6 |
| 20260508190041 | 71 | 199 | 1.7 | 3.5 | 0.00 | 0.02 | 0.01 | 50 | 1014.7 |
| 20260508185820 | 70 | 193 | 1.7 | 3.5 | 0.00 | 0.02 | 0.01 | 50 | 1014.7 |
| 20260508185620 | 70 | 173 | 1.7 | 5.2 | 0.00 | 0.02 | 0.01 | 53 | 1014.7 |
| 20260508185420 | 70 | 173 | 1.7 | 5.2 | 0.00 | 0.02 | 0.01 | 49 | 1014.7 |
| 20260508185241 | 70 | 175 | 1.7 | 5.2 | 0.00 | 0.02 | 0.01 | 49 | 1014.7 |
| 20260508185020 | 70 | 168 | 1.7 | 5.2 | 0.00 | 0.02 | 0.01 | 49 | 1014.8 |
| 20260508184841 | 70 | 172 | 1.7 | 5.2 | 0.00 | 0.02 | 0.01 | 49 | 1014.7 |
| 20260508184620 | 70 | 190 | 1.7 | 3.5 | 0.00 | 0.02 | 0.01 | 50 | 1014.8 |
| 20260508184420 | 70 | 195 | 0.9 | 3.5 | 0.00 | 0.02 | 0.01 | 48 | 1014.8 |
| 20260508184220 | 70 | 203 | 0.9 | 3.5 | 0.00 | 0.02 | 0.01 | 48 | 1014.9 |
| 20260508184021 | 70 | 204 | 0.9 | 3.5 | 0.00 | 0.02 | 0.01 | 50 | 1014.9 |
| 20260508183820 | 70 | 209 | 0.9 | 3.5 | 0.00 | 0.02 | 0.01 | 49 | 1014.9 |
| 20260508183620 | 70 | 204 | 0.9 | 3.5 | 0.00 | 0.02 | 0.01 | 49 | 1015.0 |
| 20260508183420 | 70 | 209 | 0.9 | 3.5 | 0.00 | 0.02 | 0.01 | 50 | 1015.1 |
| 20260508183220 | 70 | 205 | 0.9 | 3.5 | 0.00 | 0.02 | 0.01 | 48 | 1015.1 |
| 20260508183020 | 70 | 199 | 0.9 | 3.5 | 0.00 | 0.02 | 0.01 | 50 | 1015.1 |
| 20260508182820 | 70 | 198 | 0.9 | 3.5 | 0.00 | 0.02 | 0.01 | 49 | 1015.1 |
| 20260508182620 | 70 | 214 | 0.9 | 3.5 | 0.00 | 0.02 | 0.01 | 51 | 1015.1 |
| 20260508182420 | 70 | 213 | 0.9 | 3.5 | 0.00 | 0.02 | 0.01 | 49 | 1015.1 |
| 20260508182220 | 70 | 214 | 0.9 | 3.5 | 0.00 | 0.02 | 0.01 | 48 | 1015.2 |
| 20260508182020 | 70 | 219 | 0.9 | 3.5 | 0.00 | 0.02 | 0.01 | 49 | 1015.2 |
| 20260508181821 | 70 | 220 | 0.9 | 3.5 | 0.00 | 0.02 | 0.01 | 47 | 1015.2 |
| 20260508181620 | 70 | 206 | 0.9 | 3.5 | 0.00 | 0.02 | 0.01 | 48 | 1015.2 |
| 20260508181420 | 70 | 205 | 0.9 | 2.6 | 0.00 | 0.02 | 0.01 | 47 | 1015.2 |
| 20260508181221 | 70 | 200 | 0.9 | 2.6 | 0.00 | 0.02 | 0.01 | 46 | 1015.3 |
| 20260508181020 | 70 | 183 | 0.9 | 2.6 | 0.00 | 0.02 | 0.01 | 48 | 1015.3 |
| 20260508180820 | 70 | 177 | 0.9 | 2.6 | 0.00 | 0.02 | 0.01 | 46 | 1015.3 |
| 20260508180641 | 70 | 180 | 0.9 | 3.5 | 0.00 | 0.02 | 0.01 | 49 | 1015.4 |
| 20260508180420 | 70 | 186 | 0.9 | 3.5 | 0.00 | 0.02 | 0.01 | 48 | 1015.4 |
| 20260508180220 | 70 | 197 | 0.9 | 3.5 | 0.00 | 0.02 | 0.01 | 48 | 1015.4 |
| 20260508180020 | 70 | 194 | 0.9 | 3.5 | 0.00 | 0.02 | 0.01 | 48 | 1015.5 |
| 20260508175820 | 70 | 196 | 0.9 | 3.5 | 0.00 | 0.02 | 0.01 | 48 | 1015.5 |
| 20260508175620 | 70 | 207 | 0.9 | 3.5 | 0.00 | 0.02 | 0.01 | 50 | 1015.5 |
| 20260508175441 | 70 | 205 | 0.9 | 3.5 | 0.00 | 0.02 | 0.01 | 48 | 1015.5 |
| 20260508175220 | 70 | 196 | 0.9 | 3.5 | 0.00 | 0.02 | 0.01 | 49 | 1015.5 |
| 20260508175020 | 70 | 200 | 0.9 | 3.5 | 0.00 | 0.02 | 0.01 | 48 | 1015.6 |
| 20260508174841 | 70 | 206 | 0.9 | 3.5 | 0.00 | 0.02 | 0.01 | 48 | 1015.6 |
| 20260508174621 | 70 | 191 | 0.9 | 2.6 | 0.00 | 0.02 | 0.01 | 47 | 1015.6 |
| 20260508174420 | 70 | 169 | 0.9 | 2.6 | 0.00 | 0.02 | 0.01 | 45 | 1015.6 |
| 20260508174241 | 70 | 170 | 0.9 | 2.6 | 0.00 | 0.02 | 0.01 | 48 | 1015.7 |
| 20260508174020 | 70 | 173 | 0.9 | 2.6 | 0.00 | 0.02 | 0.01 | 47 | 1015.7 |
| 20260508173820 | 70 | 164 | 0.9 | 2.6 | 0.00 | 0.02 | 0.01 | 48 | 1015.7 |
| 20260508173620 | 70 | 169 | 0.9 | 2.6 | 0.00 | 0.02 | 0.01 | 46 | 1015.8 |
| 20260508173420 | 70 | 168 | 0.9 | 2.6 | 0.00 | 0.02 | 0.01 | 48 | 1015.8 |
| 20260508173241 | 70 | 165 | 0.9 | 2.6 | 0.00 | 0.02 | 0.01 | 48 | 1015.8 |
| 20260508173020 | 70 | 168 | 0.9 | 2.6 | 0.00 | 0.03 | 0.01 | 47 | 1015.9 |
| 20260508172820 | 70 | 170 | 0.9 | 2.6 | 0.00 | 0.03 | 0.01 | 47 | 1016.0 |
| 20260508172620 | 70 | 153 | 1.7 | 2.6 | 0.00 | 0.03 | 0.01 | 48 | 1016.0 |
| 20260508172420 | 70 | 163 | 1.7 | 2.6 | 0.00 | 0.03 | 0.01 | 49 | 1016.0 |
| 20260508172220 | 70 | 164 | 1.7 | 2.6 | 0.00 | 0.03 | 0.01 | 49 | 1016.1 |
| 20260508172020 | 70 | 157 | 1.7 | 3.5 | 0.00 | 0.03 | 0.01 | 47 | 1016.1 |
| 20260508171820 | 70 | 154 | 0.9 | 3.5 | 0.00 | 0.03 | 0.01 | 48 | 1016.0 |
| 20260508171643 | 71 | 160 | 0.9 | 3.5 | 0.00 | 0.03 | 0.01 | 48 | 1016.1 |
| 20260508171420 | 71 | 158 | 0.9 | 3.5 | 0.00 | 0.03 | 0.01 | 48 | 1016.1 |
| 20260508171220 | 71 | 163 | 0.9 | 3.5 | 0.00 | 0.03 | 0.01 | 47 | 1016.2 |
| 20260508171041 | 71 | 173 | 0.9 | 2.6 | 0.00 | 0.03 | 0.01 | 46 | 1016.3 |
| 20260508170820 | 71 | 177 | 0.9 | 2.6 | 0.00 | 0.03 | 0.01 | 48 | 1016.4 |
| 20260508170620 | 71 | 182 | 0.9 | 2.6 | 0.00 | 0.03 | 0.01 | 47 | 1016.4 |
| 20260508170420 | 71 | 191 | 0.9 | 2.6 | 0.00 | 0.03 | 0.01 | 47 | 1016.5 |
| 20260508170220 | 71 | 197 | 0.9 | 2.6 | 0.00 | 0.03 | 0.01 | 47 | 1016.5 |
| 20260508170020 | 71 | 201 | 0.9 | 1.7 | 0.00 | 0.03 | 0.01 | 46 | 1016.6 |
| 20260508165820 | 71 | 211 | 0.9 | 1.7 | 0.00 | 0.03 | 0.01 | 47 | 1016.6 |
| 20260508165641 | 71 | 219 | 0.9 | 1.7 | 0.00 | 0.03 | 0.01 | 46 | 1016.6 |
| 20260508165421 | 72 | 196 | 0.9 | 2.6 | 0.00 | 0.03 | 0.01 | 47 | 1016.6 |
| 20260508165220 | 72 | 179 | 0.9 | 2.6 | 0.00 | 0.03 | 0.01 | 46 | 1016.7 |
| 20260508165020 | 72 | 176 | 0.9 | 2.6 | 0.00 | 0.03 | 0.01 | 45 | 1016.8 |
| 20260508164820 | 72 | 173 | 0.9 | 2.6 | 0.00 | 0.03 | 0.01 | 46 | 1016.9 |
| 20260508164620 | 72 | 168 | 0.9 | 2.6 | 0.00 | 0.03 | 0.01 | 47 | 1016.9 |
| 20260508164420 | 72 | 178 | 0.9 | 2.6 | 0.00 | 0.03 | 0.01 | 48 | 1016.9 |
| 20260508164220 | 72 | 193 | 0.9 | 2.6 | 0.00 | 0.03 | 0.01 | 47 | 1017.0 |
| 20260508164041 | 72 | 196 | 0.9 | 2.6 | 0.00 | 0.03 | 0.01 | 46 | 1017.0 |
| 20260508163842 | 72 | 204 | 0.9 | 2.6 | 0.00 | 0.03 | 0.01 | 45 | 1017.1 |
| 20260508163620 | 72 | 204 | 0.9 | 1.7 | 0.00 | 0.03 | 0.01 | 45 | 1017.1 |
| 20260508163420 | 72 | 189 | 0.9 | 1.7 | 0.00 | 0.03 | 0.01 | 47 | 1017.2 |
| 20260508163220 | 72 | 165 | 0.9 | 2.6 | 0.00 | 0.03 | 0.01 | 47 | 1017.2 |
| 20260508163020 | 72 | 156 | 0.9 | 2.6 | 0.00 | 0.03 | 0.01 | 48 | 1017.2 |
| 20260508162820 | 72 | 154 | 0.9 | 2.6 | 0.00 | 0.03 | 0.01 | 48 | 1017.3 |
| 20260508162641 | 72 | 152 | 0.9 | 2.6 | 0.00 | 0.03 | 0.01 | 47 | 1017.3 |
| 20260508162420 | 72 | 159 | 0.9 | 2.6 | 0.00 | 0.03 | 0.01 | 48 | 1017.4 |
| 20260508162220 | 72 | 172 | 0.9 | 1.7 | 0.00 | 0.04 | 0.01 | 47 | 1017.4 |
| 20260508162020 | 72 | 195 | 0.9 | 1.7 | 0.00 | 0.04 | 0.01 | 48 | 1017.4 |
| 20260508161841 | 72 | 155 | 0.9 | 2.6 | 0.00 | 0.04 | 0.01 | 49 | 1017.5 |
| 20260508161641 | 71 | 147 | 0.9 | 2.6 | 0.00 | 0.04 | 0.01 | 49 | 1017.5 |
| 20260508161442 | 71 | 149 | 0.9 | 2.6 | 0.00 | 0.04 | 0.01 | 53 | 1017.5 |
| 20260508161220 | 71 | 151 | 0.9 | 2.6 | 0.00 | 0.04 | 0.01 | 51 | 1017.5 |
| 20260508161020 | 71 | 159 | 0.9 | 2.6 | 0.00 | 0.04 | 0.01 | 49 | 1017.5 |
| 20260508160820 | 72 | 191 | 0.9 | 2.6 | 0.00 | 0.04 | 0.01 | 49 | 1017.5 |
| 20260508160641 | 71 | 199 | 0.9 | 2.6 | 0.00 | 0.04 | 0.01 | 49 | 1017.6 |
| 20260508160420 | 71 | 194 | 0.9 | 2.6 | 0.00 | 0.04 | 0.01 | 49 | 1017.6 |
| 20260508160220 | 71 | 177 | 0.9 | 2.6 | 0.00 | 0.04 | 0.01 | 49 | 1017.6 |
| 20260508160020 | 71 | 165 | 0.9 | 2.6 | 0.00 | 0.04 | 0.01 | 50 | 1017.7 |
| 20260508155820 | 71 | 171 | 0.9 | 2.6 | 0.00 | 0.04 | 0.01 | 50 | 1017.6 |
| 20260508155620 | 71 | 170 | 0.9 | 2.6 | 0.00 | 0.04 | 0.01 | 51 | 1017.7 |
| 20260508155420 | 71 | 171 | 0.9 | 2.6 | 0.00 | 0.04 | 0.01 | 50 | 1017.7 |
| 20260508155220 | 71 | 178 | 0.9 | 2.6 | 0.00 | 0.04 | 0.01 | 49 | 1017.7 |
| 20260508155020 | 71 | 190 | 0.9 | 2.6 | 0.00 | 0.04 | 0.01 | 49 | 1017.7 |
| 20260508154820 | 71 | 181 | 0.9 | 2.6 | 0.00 | 0.04 | 0.01 | 48 | 1017.7 |
| 20260508154620 | 71 | 186 | 0.9 | 2.6 | 0.00 | 0.04 | 0.01 | 50 | 1017.7 |
| 20260508154420 | 71 | 182 | 0.9 | 2.6 | 0.00 | 0.04 | 0.01 | 50 | 1017.7 |
| 20260508154220 | 71 | 175 | 0.9 | 2.6 | 0.00 | 0.04 | 0.01 | 53 | 1017.7 |
| 20260508154020 | 70 | 164 | 0.9 | 2.6 | 0.00 | 0.04 | 0.01 | 52 | 1017.7 |
| 20260508153820 | 70 | 163 | 0.9 | 2.6 | 0.00 | 0.04 | 0.01 | 51 | 1017.8 |
| 20260508153642 | 70 | 158 | 0.9 | 4.3 | 0.00 | 0.04 | 0.01 | 50 | 1017.8 |
| 20260508153420 | 70 | 158 | 0.9 | 4.3 | 0.00 | 0.04 | 0.01 | 53 | 1017.8 |
| 20260508153221 | 70 | 159 | 0.9 | 4.3 | 0.00 | 0.04 | 0.01 | 53 | 1017.9 |
| 20260508153020 | 70 | 164 | 0.9 | 4.3 | 0.00 | 0.04 | 0.01 | 51 | 1017.8 |
| 20260508152841 | 71 | 167 | 0.9 | 4.3 | 0.00 | 0.04 | 0.01 | 51 | 1017.9 |
| 20260508152620 | 71 | 170 | 0.9 | 2.6 | 0.00 | 0.04 | 0.01 | 54 | 1017.9 |
| 20260508152420 | 71 | 176 | 0.9 | 2.6 | 0.00 | 0.04 | 0.01 | 52 | 1017.9 |
| 20260508152220 | 71 | 179 | 0.9 | 2.6 | 0.00 | 0.04 | 0.01 | 52 | 1017.9 |
| 20260508152020 | 71 | 182 | 0.9 | 2.6 | 0.00 | 0.04 | 0.01 | 52 | 1017.9 |
| 20260508151820 | 71 | 184 | 0.9 | 2.6 | 0.00 | 0.04 | 0.01 | 51 | 1017.9 |
| 20260508151641 | 71 | 184 | 0.9 | 2.6 | 0.00 | 0.04 | 0.01 | 53 | 1017.9 |
| 20260508151421 | 71 | 176 | 0.9 | 1.7 | 0.00 | 0.04 | 0.01 | 54 | 1017.9 |